THY5 LTFM-KORD

Flight info

Callsign THY5
Flight time 10h 56m
Altitude 32000
Route IBLAX1E/36 IBLAX P727 BGS L622 GONGO DCT KOMAN DCT KARIL DCT KENIN DCT LENOV/N0482F340 DCT BAREX DCT BINKA DCT PEROM DCT NIKDA DCT VAXIT DCT ELSAN DCT OVDAN DCT IBROD DCT OSBOX DCT SUNOT/M084F350 DCT 58N020W 60N030W 61N040W 62N050W DCT NIFTY/M084F360 DCT PEPKI/N0487F360 DCT LOPVI DCT PELSI DCT STAFE/N0495F380 N890B SSM WYNDE3
Aircraft B77W/H-SDE1E2E3FGHIJ2J3J4J5M1RWXY/LB1D1

Departure

Time 2026-05-07 14:37
Airport İstanbul Airport (LTFM)

Arrival

Time 2026-05-08 01:34
Airport Chicago O'Hare International Airport (KORD)
Time Latitude Longitude Altitude Speed Heading
2026-05-07 13:57 41.26537 28.74369 318 ft 0 kts 269°
2026-05-07 14:26 41.26537 28.74384 318 ft 2 kts 273°
2026-05-07 14:26 41.26536 28.74406 318 ft 2 kts 278°
2026-05-07 14:27 41.26533 28.74427 318 ft 2 kts 287°
2026-05-07 14:27 41.26527 28.74447 316 ft 2 kts 306°
2026-05-07 14:27 41.26515 28.74462 316 ft 2 kts 335°
2026-05-07 14:27 41.26500 28.74468 317 ft 1 kts 354°
2026-05-07 14:28 41.26496 28.74469 316 ft 0 kts 355°
2026-05-07 14:31 41.26503 28.74468 317 ft 7 kts 356°
2026-05-07 14:31 41.26624 28.74464 318 ft 27 kts 359°
2026-05-07 14:31 41.26836 28.74462 318 ft 27 kts 359°
2026-05-07 14:32 41.26940 28.74460 317 ft 9 kts
2026-05-07 14:32 41.26968 28.74527 317 ft 9 kts 85°
2026-05-07 14:32 41.26971 28.74628 317 ft 14 kts 88°
2026-05-07 14:32 41.26973 28.74798 317 ft 22 kts 90°
2026-05-07 14:33 41.26974 28.75038 317 ft 29 kts 88°
2026-05-07 14:33 41.26979 28.75315 308 ft 20 kts 89°
2026-05-07 14:33 41.26920 28.75370 312 ft 12 kts 177°
2026-05-07 14:33 41.26796 28.75373 314 ft 27 kts 178°
2026-05-07 14:34 41.26571 28.75376 317 ft 30 kts 179°
2026-05-07 14:34 41.26388 28.75381 317 ft 25 kts 179°
2026-05-07 14:34 41.26260 28.75397 318 ft 13 kts 141°
2026-05-07 14:34 41.26245 28.75507 319 ft 12 kts 90°
2026-05-07 14:35 41.26245 28.75520 319 ft 0 kts 90°
2026-05-07 14:35 41.26245 28.75528 319 ft 4 kts 90°
2026-05-07 14:35 41.26244 28.75626 320 ft 16 kts 90°
2026-05-07 14:36 41.26263 28.75668 319 ft 7 kts 16°
2026-05-07 14:36 41.26283 28.75667 320 ft 10 kts 359°
2026-05-07 14:36 41.26676 28.75662 315 ft 94 kts 359°
2026-05-07 14:36 41.27629 28.75650 293 ft 178 kts 359°
2026-05-07 14:37 41.28557 28.75632 410 ft 205 kts 358°
2026-05-07 14:37 41.31293 28.76410 1864 ft 219 kts 51°
2026-05-07 14:37 41.32136 28.78187 2217 ft 238 kts 55°
2026-05-07 14:38 41.33447 28.79595 2398 ft 254 kts 19°
2026-05-07 14:38 41.35140 28.80406 2898 ft 263 kts 21°
2026-05-07 14:38 41.36808 28.81477 3630 ft 269 kts 25°
2026-05-07 14:38 41.38522 28.82422 4315 ft 267 kts
2026-05-07 14:39 41.40360 28.82346 4965 ft 265 kts 350°
2026-05-07 14:39 41.42189 28.82081 5704 ft 268 kts 352°
2026-05-07 14:39 41.44044 28.81851 6566 ft 268 kts 352°
2026-05-07 14:39 41.45911 28.81621 7294 ft 271 kts 352°
2026-05-07 14:40 41.47794 28.81387 8019 ft 273 kts 352°
2026-05-07 14:40 41.49695 28.81152 8752 ft 276 kts 352°
2026-05-07 14:40 41.51621 28.80913 9483 ft 279 kts 353°
2026-05-07 14:40 41.53564 28.80674 10192 ft 282 kts 353°
2026-05-07 14:41 41.55568 28.80425 10549 ft 300 kts 353°
2026-05-07 14:41 41.57732 28.80156 10719 ft 323 kts 353°
2026-05-07 14:41 41.60034 28.79822 10861 ft 341 kts 347°
2026-05-07 14:41 41.62255 28.78559 11089 ft 357 kts 322°
2026-05-07 14:42 41.64075 28.76258 11542 ft 365 kts 313°
2026-05-07 14:42 41.65845 28.73773 12167 ft 373 kts 314°
2026-05-07 14:42 41.67650 28.71249 12939 ft 377 kts 314°
2026-05-07 14:42 41.69459 28.68726 13705 ft 382 kts 314°
2026-05-07 14:43 41.71310 28.66149 14418 ft 386 kts 314°
2026-05-07 14:43 41.73182 28.63550 15145 ft 389 kts 314°
2026-05-07 14:43 41.75070 28.60931 15882 ft 392 kts 314°
2026-05-07 14:43 41.76975 28.58290 16606 ft 395 kts 314°
2026-05-07 14:44 41.78896 28.55628 17311 ft 399 kts 314°
2026-05-07 14:44 41.80833 28.52941 18006 ft 403 kts 314°
2026-05-07 14:44 41.82790 28.50225 18652 ft 407 kts 314°
2026-05-07 14:44 41.84763 28.47483 19232 ft 410 kts 314°
2026-05-07 14:45 41.86751 28.44718 19886 ft 412 kts 314°
2026-05-07 14:45 41.88742 28.41946 20567 ft 413 kts 314°
2026-05-07 14:45 41.90740 28.39162 21227 ft 415 kts 314°
2026-05-07 14:45 41.92727 28.36390 21834 ft 417 kts 314°
2026-05-07 14:46 41.94742 28.33577 22431 ft 420 kts 314°
2026-05-07 14:46 41.96774 28.30739 23027 ft 422 kts 314°
2026-05-07 14:46 41.98787 28.27854 23613 ft 424 kts 311°
2026-05-07 14:46 42.00582 28.24685 24071 ft 428 kts 306°
2026-05-07 14:47 42.02239 28.21326 24535 ft 430 kts 304°
2026-05-07 14:47 42.03853 28.17929 25032 ft 432 kts 303°
2026-05-07 14:47 42.05484 28.14522 25515 ft 434 kts 304°
2026-05-07 14:47 42.07145 28.11118 25976 ft 436 kts 304°
2026-05-07 14:48 42.08832 28.07718 26432 ft 438 kts 305°
2026-05-07 14:48 42.10541 28.04305 26867 ft 440 kts 305°
2026-05-07 14:48 42.12260 28.00883 27241 ft 443 kts 304°
2026-05-07 14:48 42.13969 27.97479 27611 ft 446 kts 304°
2026-05-07 14:49 42.15708 27.94009 28032 ft 448 kts 304°
2026-05-07 14:49 42.17453 27.90522 28436 ft 449 kts 304°
2026-05-07 14:49 42.19205 27.87015 28821 ft 451 kts 304°
2026-05-07 14:49 42.21105 27.83644 29148 ft 453 kts 312°
2026-05-07 14:50 42.23364 27.80670 29459 ft 455 kts 319°
2026-05-07 14:50 42.25856 27.78009 29743 ft 458 kts 323°
2026-05-07 14:50 42.28596 27.75754 29963 ft 463 kts 330°
2026-05-07 14:50 42.31440 27.73714 30315 ft 462 kts 330°
2026-05-07 14:51 42.34283 27.71694 30704 ft 460 kts 330°
2026-05-07 14:51 42.37105 27.69674 31102 ft 458 kts 330°
2026-05-07 14:51 42.39913 27.67641 31484 ft 456 kts 330°
2026-05-07 14:51 42.42702 27.65602 31830 ft 455 kts 329°
2026-05-07 14:52 42.45448 27.63583 32037 ft 457 kts 329°
2026-05-07 14:52 42.48257 27.61512 32062 ft 460 kts 329°
2026-05-07 14:52 42.53863 27.57376 32098 ft 456 kts 329°
2026-05-07 14:53 42.59375 27.53182 32105 ft 452 kts 325°
2026-05-07 14:53 42.64490 27.48210 32109 ft 452 kts 322°
2026-05-07 14:54 42.69342 27.43394 32099 ft 453 kts 322°
2026-05-07 14:54 42.71889 27.40820 31771 ft 454 kts 322°
2026-05-07 14:54 42.74428 27.38306 31961 ft 452 kts 322°
2026-05-07 14:55 42.76931 27.35783 31730 ft 451 kts 322°
2026-05-07 14:55 42.79469 27.33288 31914 ft 451 kts 323°
2026-05-07 14:55 42.84592 27.28309 32048 ft 453 kts 323°
2026-05-07 14:56 42.89709 27.23286 32080 ft 457 kts 322°
2026-05-07 14:56 42.94882 27.18160 32081 ft 461 kts 322°
2026-05-07 14:57 43.00083 27.12995 32068 ft 461 kts 322°
2026-05-07 14:57 43.05268 27.07829 32076 ft 460 kts 322°
2026-05-07 14:58 43.10425 27.02685 32055 ft 457 kts 322°
2026-05-07 14:58 43.15664 26.97829 32052 ft 456 kts 324°
2026-05-07 14:59 43.20995 26.93085 32049 ft 455 kts 325°
2026-05-07 14:59 43.23614 26.90732 31875 ft 456 kts 324°
2026-05-07 14:59 43.26254 26.88334 31975 ft 455 kts 324°
2026-05-07 15:00 43.31069 26.83955 31865 ft 459 kts 324°
2026-05-07 15:00 43.31979 26.83137 31844 ft 459 kts 324°
2026-05-07 15:01 43.34480 26.80882 32190 ft 453 kts 324°
2026-05-07 15:01 43.37135 26.78454 31985 ft 461 kts 324°
2026-05-07 15:02 43.42505 26.73506 32042 ft 465 kts 324°
2026-05-07 15:02 43.47813 26.68617 32020 ft 458 kts 324°
2026-05-07 15:03 43.53125 26.63724 32027 ft 460 kts 324°
2026-05-07 15:03 43.58215 26.59027 32033 ft 462 kts 324°
2026-05-07 15:04 43.60844 26.56585 32044 ft 451 kts 323°
2026-05-07 15:04 43.63458 26.54164 32134 ft 457 kts 324°
2026-05-07 15:04 43.68755 26.49265 32079 ft 459 kts 324°
2026-05-07 15:05 43.74082 26.44324 32026 ft 468 kts 323°
2026-05-07 15:05 43.79548 26.39239 32023 ft 475 kts 323°
2026-05-07 15:06 43.84959 26.34195 32013 ft 464 kts 323°
2026-05-07 15:06 43.90333 26.29307 32015 ft 461 kts 324°
2026-05-07 15:07 43.95777 26.24509 32013 ft 464 kts 325°
2026-05-07 15:07 44.01235 26.19687 32011 ft 465 kts 325°
2026-05-07 15:08 44.06695 26.14827 32006 ft 466 kts 324°
2026-05-07 15:08 44.12122 26.09973 32014 ft 465 kts 324°
2026-05-07 15:09 44.17561 26.05094 32002 ft 465 kts 324°
2026-05-07 15:09 44.22975 26.00227 32009 ft 464 kts 324°
2026-05-07 15:10 44.28402 25.95337 32010 ft 464 kts 324°
2026-05-07 15:10 44.33827 25.90438 32017 ft 464 kts 324°
2026-05-07 15:11 44.39267 25.85515 32022 ft 466 kts 324°
2026-05-07 15:11 44.44685 25.80602 32014 ft 467 kts 324°
2026-05-07 15:12 44.50165 25.75622 32017 ft 468 kts 324°
2026-05-07 15:12 44.55607 25.70664 32015 ft 468 kts 324°
2026-05-07 15:13 44.61049 25.65695 32018 ft 469 kts 324°
2026-05-07 15:13 44.66541 25.60669 32027 ft 470 kts 324°
2026-05-07 15:14 44.72001 25.55661 32017 ft 470 kts 324°
2026-05-07 15:14 44.77477 25.50626 32022 ft 470 kts 324°
2026-05-07 15:15 44.82958 25.45575 32019 ft 470 kts 324°
2026-05-07 15:15 44.88440 25.40511 32027 ft 471 kts 324°
2026-05-07 15:16 44.93899 25.35459 32037 ft 472 kts 324°
2026-05-07 15:16 44.99394 25.30360 32036 ft 472 kts 324°
2026-05-07 15:17 45.04889 25.25248 32033 ft 472 kts 323°
2026-05-07 15:17 45.10350 25.20157 32036 ft 472 kts 323°
2026-05-07 15:18 45.15808 25.15058 32052 ft 472 kts 323°
2026-05-07 15:18 45.21293 25.09919 32045 ft 472 kts 323°
2026-05-07 15:19 45.26780 25.04768 32053 ft 472 kts 323°
2026-05-07 15:19 45.32233 24.99637 32047 ft 473 kts 323°
2026-05-07 15:20 45.37737 24.94447 32062 ft 473 kts 323°
2026-05-07 15:20 45.43228 24.89252 32039 ft 474 kts 323°
2026-05-07 15:21 45.48721 24.84046 32051 ft 473 kts 322°
2026-05-07 15:21 45.54167 24.78874 32052 ft 473 kts 322°
2026-05-07 15:22 45.59648 24.73655 32022 ft 474 kts 322°
2026-05-07 15:22 45.65139 24.68415 32041 ft 474 kts 322°
2026-05-07 15:23 45.70634 24.63158 32013 ft 473 kts 322°
2026-05-07 15:23 45.76068 24.57946 32012 ft 473 kts 322°
2026-05-07 15:24 45.81542 24.52682 32005 ft 472 kts 322°
2026-05-07 15:24 45.87004 24.47418 31998 ft 473 kts 322°
2026-05-07 15:25 45.92438 24.42168 31996 ft 473 kts 322°
2026-05-07 15:25 45.97915 24.36864 32000 ft 475 kts 321°
2026-05-07 15:26 46.02492 24.32421 32005 ft 477 kts 321°
2026-05-07 15:26 46.08018 24.27044 31998 ft 479 kts 321°
2026-05-07 15:27 46.13514 24.21687 31998 ft 480 kts 321°
2026-05-07 15:27 46.19054 24.16271 31995 ft 480 kts 321°
2026-05-07 15:28 46.24594 24.10844 31998 ft 479 kts 321°
2026-05-07 15:28 46.30087 24.05449 31993 ft 478 kts 321°
2026-05-07 15:29 46.35600 24.00020 31999 ft 478 kts 321°
2026-05-07 15:29 46.41067 23.94620 32002 ft 478 kts 321°
2026-05-07 15:30 46.46549 23.89195 32007 ft 479 kts 321°
2026-05-07 15:30 46.52080 23.83707 32007 ft 481 kts 321°
2026-05-07 15:31 46.57612 23.78203 32007 ft 483 kts 321°
2026-05-07 15:31 46.63135 23.72696 32011 ft 483 kts 321°
2026-05-07 15:32 46.68716 23.67119 32021 ft 484 kts 321°
2026-05-07 15:32 46.74242 23.61582 32021 ft 484 kts 321°
2026-05-07 15:33 46.79798 23.55999 32019 ft 484 kts 321°
2026-05-07 15:33 46.85344 23.50412 32021 ft 484 kts 321°
2026-05-07 15:34 46.90865 23.44834 32021 ft 485 kts 322°
2026-05-07 15:34 46.96422 23.39209 32020 ft 485 kts 322°
2026-05-07 15:35 47.01980 23.33570 32024 ft 485 kts 322°
2026-05-07 15:35 47.07510 23.27940 32027 ft 486 kts 321°
2026-05-07 15:36 47.13071 23.22266 32039 ft 486 kts 321°
2026-05-07 15:36 47.18602 23.16607 32031 ft 486 kts 321°
2026-05-07 15:37 47.24166 23.10901 32027 ft 486 kts 321°
2026-05-07 15:37 47.29686 23.05225 32026 ft 486 kts 321°
2026-05-07 15:38 47.35234 22.99505 32039 ft 486 kts 321°
2026-05-07 15:38 47.40779 22.93772 32035 ft 487 kts 321°
2026-05-07 15:39 47.46340 22.88008 32026 ft 487 kts 321°
2026-05-07 15:39 47.51875 22.82257 32023 ft 487 kts 321°
2026-05-07 15:40 47.57421 22.76478 32023 ft 487 kts 321°
2026-05-07 15:40 47.62962 22.70689 32030 ft 487 kts 320°
2026-05-07 15:41 47.68470 22.64920 32023 ft 487 kts 320°
2026-05-07 15:41 47.74011 22.59101 32011 ft 487 kts 320°
2026-05-07 15:42 47.79553 22.53265 32013 ft 487 kts 320°
2026-05-07 15:42 47.85057 22.47454 32022 ft 488 kts 320°
2026-05-07 15:43 47.90598 22.41587 32017 ft 488 kts 320°
2026-05-07 15:43 47.96146 22.35698 32014 ft 488 kts 320°
2026-05-07 15:44 48.01685 22.29803 32014 ft 488 kts 320°
2026-05-07 15:44 48.07183 22.23935 32036 ft 488 kts 320°
2026-05-07 15:45 48.12718 22.18011 32015 ft 489 kts 320°
2026-05-07 15:45 48.18253 22.12073 32009 ft 489 kts 320°
2026-05-07 15:46 48.26539 22.03152 31993 ft 488 kts 320°
2026-05-07 15:47 48.32031 21.97218 32023 ft 488 kts 320°
2026-05-07 15:47 48.37600 21.91329 31995 ft 490 kts 323°
2026-05-07 15:48 48.43412 21.85942 31998 ft 491 kts 324°
2026-05-07 15:48 48.49223 21.80650 31996 ft 491 kts 324°
2026-05-07 15:49 48.55065 21.75276 31985 ft 492 kts 324°
2026-05-07 15:49 48.60894 21.69863 31986 ft 492 kts 324°
2026-05-07 15:50 48.66716 21.64434 31981 ft 491 kts 324°
2026-05-07 15:50 48.72538 21.58991 31971 ft 491 kts 324°
2026-05-07 15:51 48.78317 21.53575 31972 ft 491 kts 324°
2026-05-07 15:51 48.84132 21.48111 31972 ft 492 kts 324°
2026-05-07 15:52 48.89959 21.42620 31968 ft 493 kts 323°
2026-05-07 15:52 48.95790 21.37109 31965 ft 494 kts 323°
2026-05-07 15:53 49.01621 21.31584 31964 ft 494 kts 323°
2026-05-07 15:53 49.07458 21.26038 31968 ft 494 kts 323°
2026-05-07 15:54 49.13286 21.20484 31993 ft 494 kts 323°
2026-05-07 15:54 49.19123 21.14905 31981 ft 494 kts 323°
2026-05-07 15:55 49.24963 21.09309 31977 ft 495 kts 323°
2026-05-07 15:55 49.30769 21.03729 31969 ft 495 kts 323°
2026-05-07 15:56 49.36278 20.97501 31968 ft 488 kts 313°
2026-05-07 15:56 49.41270 20.90449 31962 ft 488 kts 311°
2026-05-07 15:57 49.46264 20.83346 31989 ft 489 kts 312°
2026-05-07 15:57 49.51261 20.76286 32000 ft 490 kts 312°
2026-05-07 15:58 49.56299 20.69187 32002 ft 490 kts 312°
2026-05-07 15:58 49.61310 20.62112 32012 ft 491 kts 312°
2026-05-07 15:59 49.66359 20.54963 32185 ft 495 kts 312°
2026-05-07 15:59 49.68897 20.51360 32482 ft 494 kts 311°
2026-05-07 15:59 49.71429 20.47761 32845 ft 492 kts 311°
2026-05-07 15:59 49.73947 20.44179 33273 ft 489 kts 311°
2026-05-07 16:00 49.76422 20.40653 33657 ft 487 kts 311°
2026-05-07 16:00 49.78916 20.37092 33920 ft 487 kts 311°
2026-05-07 16:00 49.81421 20.33507 33954 ft 490 kts 311°
2026-05-07 16:01 49.86409 20.26352 33987 ft 486 kts 311°
2026-05-07 16:01 49.91347 20.19259 33961 ft 483 kts 310°
2026-05-07 16:02 49.96238 20.12206 33967 ft 481 kts 310°
2026-05-07 16:02 50.01140 20.05114 33968 ft 481 kts 310°
2026-05-07 16:03 50.06046 19.97995 33983 ft 483 kts 310°
2026-05-07 16:03 50.10950 19.90860 33978 ft 485 kts 310°
2026-05-07 16:04 50.15893 19.83650 33971 ft 487 kts 310°
2026-05-07 16:04 50.20832 19.76424 33966 ft 488 kts 310°
2026-05-07 16:05 50.25795 19.69141 33964 ft 488 kts 310°
2026-05-07 16:05 50.30725 19.61884 33964 ft 490 kts 310°
2026-05-07 16:06 50.35705 19.54530 33955 ft 490 kts 310°
2026-05-07 16:06 50.40644 19.47215 33952 ft 491 kts 310°
2026-05-07 16:07 50.45601 19.39851 33946 ft 491 kts 310°
2026-05-07 16:07 50.50567 19.32455 33966 ft 492 kts 310°
2026-05-07 16:08 50.55522 19.25050 33953 ft 493 kts 310°
2026-05-07 16:08 50.60503 19.17582 33940 ft 495 kts 310°
2026-05-07 16:09 50.65496 19.10074 33952 ft 495 kts 310°
2026-05-07 16:09 50.70442 19.02615 33956 ft 495 kts 310°
2026-05-07 16:10 50.75408 18.95099 33960 ft 496 kts 310°
2026-05-07 16:10 50.80388 18.87542 33963 ft 497 kts 310°
2026-05-07 16:11 50.85370 18.79957 33962 ft 497 kts 310°
2026-05-07 16:11 50.90341 18.72378 33960 ft 498 kts 311°
2026-05-07 16:12 50.95501 18.64934 33961 ft 500 kts 313°
2026-05-07 16:12 51.00692 18.57646 33965 ft 500 kts 313°
2026-05-07 16:13 51.05898 18.50271 33971 ft 500 kts 312°
2026-05-07 16:13 51.11051 18.42889 33971 ft 500 kts 312°
2026-05-07 16:14 51.16231 18.35423 33971 ft 500 kts 312°
2026-05-07 16:14 51.21375 18.27985 33982 ft 502 kts 311°
2026-05-07 16:15 51.26540 18.20496 33976 ft 503 kts 311°
2026-05-07 16:15 51.31718 18.12965 33987 ft 503 kts 311°
2026-05-07 16:16 51.36023 18.06689 33999 ft 503 kts 311°
2026-05-07 16:16 51.42044 17.97881 34006 ft 503 kts 311°
2026-05-07 16:17 51.46340 17.91577 34004 ft 503 kts 311°
2026-05-07 16:17 51.51514 17.83962 33996 ft 502 kts 311°
2026-05-07 16:18 51.56633 17.76402 33998 ft 501 kts 311°
2026-05-07 16:18 51.61767 17.68796 34003 ft 500 kts 311°
2026-05-07 16:19 51.66830 17.61270 34018 ft 501 kts 311°
2026-05-07 16:19 51.71950 17.53635 34010 ft 500 kts 311°
2026-05-07 16:20 51.77027 17.46042 34012 ft 500 kts 311°
2026-05-07 16:20 51.82126 17.38391 34009 ft 499 kts 311°
2026-05-07 16:21 51.87191 17.30765 34011 ft 499 kts 311°
2026-05-07 16:21 51.92275 17.23085 34008 ft 500 kts 311°
2026-05-07 16:22 51.97368 17.15368 34008 ft 500 kts 311°
2026-05-07 16:22 52.02458 17.07629 34013 ft 500 kts 311°
2026-05-07 16:23 52.07524 16.99903 34017 ft 500 kts 311°
2026-05-07 16:23 52.12574 16.92175 34046 ft 501 kts 312°
2026-05-07 16:24 52.17648 16.84383 34038 ft 501 kts 312°
2026-05-07 16:24 52.22720 16.76572 34040 ft 500 kts 312°
2026-05-07 16:25 52.27753 16.68795 34042 ft 500 kts 312°
2026-05-07 16:25 52.32812 16.60951 34045 ft 500 kts 311°
2026-05-07 16:26 52.37863 16.53091 34053 ft 501 kts 312°
2026-05-07 16:26 52.42879 16.45261 34046 ft 501 kts 312°
2026-05-07 16:27 52.47943 16.37330 34039 ft 502 kts 312°
2026-05-07 16:27 52.52965 16.29441 34039 ft 502 kts 312°
2026-05-07 16:28 52.57166 16.22819 34042 ft 503 kts 312°
2026-05-07 16:29 52.60639 16.17331 34065 ft 503 kts 313°
2026-05-07 16:29 52.63173 16.13318 34044 ft 503 kts 313°
2026-05-07 16:30 52.68204 16.05335 34040 ft 503 kts 312°
2026-05-07 16:30 52.73240 15.97315 34047 ft 502 kts 312°
2026-05-07 16:31 52.78264 15.89287 34045 ft 502 kts 312°
2026-05-07 16:31 52.83259 15.81276 34073 ft 501 kts 313°
2026-05-07 16:32 52.88244 15.73254 34053 ft 500 kts 313°
2026-05-07 16:32 52.93239 15.65192 34047 ft 499 kts 313°
2026-05-07 16:33 52.98185 15.57180 34047 ft 498 kts 312°
2026-05-07 16:33 53.03127 15.49149 34051 ft 497 kts 312°
2026-05-07 16:34 53.08078 15.41072 34097 ft 497 kts 313°
2026-05-07 16:34 53.12978 15.33054 34055 ft 495 kts 313°
2026-05-07 16:35 53.17881 15.25006 34051 ft 492 kts 313°
2026-05-07 16:35 53.22737 15.17005 34051 ft 490 kts 313°
2026-05-07 16:36 53.27572 15.09011 34063 ft 489 kts 313°
2026-05-07 16:36 53.32366 15.01060 34068 ft 489 kts 313°
2026-05-07 16:37 53.37205 14.93006 34077 ft 490 kts 313°
2026-05-07 16:37 53.42045 14.84923 34079 ft 491 kts 313°
2026-05-07 16:38 53.46892 14.76801 34077 ft 493 kts 313°
2026-05-07 16:38 53.51741 14.68647 34077 ft 493 kts 313°
2026-05-07 16:39 53.56561 14.60515 34092 ft 493 kts 313°
2026-05-07 16:39 53.61393 14.52335 34081 ft 491 kts 313°
2026-05-07 16:40 53.66187 14.44192 34088 ft 488 kts 313°
2026-05-07 16:40 53.70928 14.36110 34094 ft 486 kts 313°
2026-05-07 16:41 53.75686 14.27973 34101 ft 485 kts 313°
2026-05-07 16:41 53.80511 14.20069 34110 ft 485 kts 316°
2026-05-07 16:42 53.85471 14.12296 34108 ft 486 kts 316°
2026-05-07 16:42 53.90437 14.04454 34111 ft 488 kts 315°
2026-05-07 16:43 53.95368 13.96571 34112 ft 489 kts 315°
2026-05-07 16:43 54.00316 13.88608 34109 ft 489 kts 315°
2026-05-07 16:44 54.04879 13.81240 34121 ft 488 kts 315°
2026-05-07 16:44 54.09765 13.73328 34101 ft 487 kts 316°
2026-05-07 16:45 54.14665 13.65368 34097 ft 485 kts 315°
2026-05-07 16:45 54.19544 13.57415 34120 ft 483 kts 316°
2026-05-07 16:46 54.24359 13.49540 34117 ft 482 kts 315°
2026-05-07 16:46 54.29203 13.41586 34119 ft 481 kts 315°
2026-05-07 16:47 54.34028 13.33639 34118 ft 480 kts 316°
2026-05-07 16:47 54.38835 13.25697 34119 ft 479 kts 316°
2026-05-07 16:48 54.43523 13.17708 34116 ft 477 kts 310°
2026-05-07 16:48 54.47007 13.08043 34122 ft 477 kts 294°
2026-05-07 16:49 54.49060 12.97194 34121 ft 477 kts 286°
2026-05-07 16:49 54.50921 12.86201 34114 ft 479 kts 287°
2026-05-07 16:50 54.52830 12.75184 34112 ft 480 kts 287°
2026-05-07 16:50 54.54746 12.64237 34112 ft 481 kts 287°
2026-05-07 16:51 54.56672 12.53173 34116 ft 481 kts 287°
2026-05-07 16:51 54.58583 12.42119 34104 ft 481 kts 287°
2026-05-07 16:52 54.60502 12.31127 34120 ft 481 kts 290°
2026-05-07 16:52 54.63240 12.20615 34126 ft 480 kts 299°
2026-05-07 16:53 54.66418 12.10458 34114 ft 480 kts 300°
2026-05-07 16:53 54.69581 12.00274 34115 ft 481 kts 299°
2026-05-07 16:54 54.72715 11.90036 34117 ft 482 kts 300°
2026-05-07 16:54 54.75836 11.79746 34120 ft 483 kts 299°
2026-05-07 16:55 54.78928 11.69497 34117 ft 483 kts 299°
2026-05-07 16:55 54.82034 11.59163 34120 ft 483 kts 299°
2026-05-07 16:56 54.85132 11.48809 34119 ft 483 kts 299°
2026-05-07 16:56 54.89761 11.33257 34122 ft 483 kts 299°
2026-05-07 16:57 54.92836 11.22871 34122 ft 483 kts 299°
2026-05-07 16:57 54.95896 11.12487 34120 ft 482 kts 299°
2026-05-07 16:58 54.98951 11.02076 34122 ft 482 kts 299°
2026-05-07 16:58 55.01986 10.91691 34121 ft 481 kts 298°
2026-05-07 16:59 55.05018 10.81268 34119 ft 480 kts 298°
2026-05-07 16:59 55.08013 10.70922 34119 ft 479 kts 298°
2026-05-07 17:00 55.11013 10.60514 34118 ft 478 kts 298°
2026-05-07 17:00 55.13992 10.50132 34119 ft 477 kts 298°
2026-05-07 17:01 55.16942 10.39808 34120 ft 476 kts 298°
2026-05-07 17:01 55.19884 10.29467 34118 ft 477 kts 298°
2026-05-07 17:02 55.22832 10.19056 34117 ft 477 kts 298°
2026-05-07 17:02 55.25774 10.08620 34119 ft 478 kts 298°
2026-05-07 17:03 55.28711 9.98156 34119 ft 478 kts 297°
2026-05-07 17:03 55.31641 9.87669 34118 ft 478 kts 297°
2026-05-07 17:04 55.34544 9.77230 34115 ft 478 kts 297°
2026-05-07 17:04 55.37461 9.66694 34116 ft 478 kts 297°
2026-05-07 17:05 55.40355 9.56193 34116 ft 478 kts 297°
2026-05-07 17:05 55.43251 9.45639 34123 ft 477 kts 296°
2026-05-07 17:06 55.45646 9.36867 34103 ft 476 kts 296°
2026-05-07 17:06 55.48491 9.26406 34100 ft 474 kts 296°
2026-05-07 17:07 55.51340 9.15886 34101 ft 473 kts 296°
2026-05-07 17:07 55.54152 9.05455 34111 ft 473 kts 296°
2026-05-07 17:08 55.56980 8.94913 34124 ft 473 kts 296°
2026-05-07 17:08 55.59773 8.84454 34125 ft 472 kts 296°
2026-05-07 17:09 55.62576 8.73911 34123 ft 472 kts 296°
2026-05-07 17:09 55.65358 8.63395 34121 ft 472 kts 296°
2026-05-07 17:10 55.68125 8.52888 34121 ft 472 kts 296°
2026-05-07 17:10 55.70899 8.42306 34123 ft 472 kts 295°
2026-05-07 17:11 55.73652 8.31753 34128 ft 473 kts 295°
2026-05-07 17:11 55.76414 8.21116 34127 ft 473 kts 295°
2026-05-07 17:12 55.79168 8.10462 34128 ft 474 kts 295°
2026-05-07 17:12 55.81897 7.99850 34130 ft 474 kts 295°
2026-05-07 17:13 55.84633 7.89164 34133 ft 474 kts 295°
2026-05-07 17:13 55.87343 7.78528 34128 ft 475 kts 294°
2026-05-07 17:14 55.90068 7.67779 34129 ft 475 kts 294°
2026-05-07 17:14 55.92771 7.57066 34129 ft 475 kts 294°
2026-05-07 17:15 55.95482 7.46270 34128 ft 476 kts 294°
2026-05-07 17:15 55.98179 7.35475 34127 ft 476 kts 294°
2026-05-07 17:16 56.00851 7.24732 34129 ft 476 kts 294°
2026-05-07 17:16 56.03533 7.13892 34128 ft 476 kts 294°
2026-05-07 17:17 56.06206 7.03034 34126 ft 476 kts 294°
2026-05-07 17:17 56.08850 6.92244 34126 ft 476 kts 294°
2026-05-07 17:18 56.11503 6.81363 34138 ft 476 kts 293°
2026-05-07 17:18 56.14145 6.70472 34130 ft 476 kts 293°
2026-05-07 17:19 56.16764 6.59621 34127 ft 476 kts 293°
2026-05-07 17:19 56.19387 6.48700 34128 ft 475 kts 292°
2026-05-07 17:20 56.21998 6.37770 34127 ft 475 kts 292°
2026-05-07 17:20 56.24595 6.26849 34133 ft 475 kts 292°
2026-05-07 17:21 56.27183 6.15909 34130 ft 475 kts 292°
2026-05-07 17:21 56.29750 6.05002 34126 ft 476 kts 292°
2026-05-07 17:22 56.32325 5.94002 34117 ft 477 kts 292°
2026-05-07 17:22 56.34896 5.82968 34128 ft 477 kts 292°
2026-05-07 17:23 56.37454 5.71927 34139 ft 477 kts 291°
2026-05-07 17:23 56.40006 5.60857 34121 ft 478 kts 291°
2026-05-07 17:24 56.42534 5.49836 34115 ft 478 kts 291°
2026-05-07 17:24 56.45071 5.38719 34114 ft 478 kts 291°
2026-05-07 17:25 56.47596 5.27591 34119 ft 478 kts 291°
2026-05-07 17:25 56.50094 5.16526 34128 ft 476 kts 291°
2026-05-07 17:26 56.52597 5.05389 34121 ft 475 kts 291°
2026-05-07 17:26 56.54703 4.94121 34120 ft 473 kts 283°
2026-05-07 17:27 56.56240 4.82522 34121 ft 473 kts 282°
2026-05-07 17:27 56.57767 4.70914 34125 ft 473 kts 282°
2026-05-07 17:28 56.59314 4.59310 34121 ft 473 kts 282°
2026-05-07 17:28 56.60867 4.47674 34116 ft 474 kts 282°
2026-05-07 17:29 56.62403 4.36080 34119 ft 475 kts 282°
2026-05-07 17:29 56.63939 4.24377 34118 ft 475 kts 282°
2026-05-07 17:30 56.65463 4.12670 34118 ft 476 kts 282°
2026-05-07 17:30 56.66976 4.00963 34124 ft 476 kts 281°
2026-05-07 17:31 56.68480 3.89233 34115 ft 476 kts 281°
2026-05-07 17:31 56.70110 3.77641 34112 ft 477 kts 288°
2026-05-07 17:32 56.72890 3.66639 34115 ft 480 kts 299°
2026-05-07 17:32 56.76574 3.56505 34116 ft 480 kts 302°
2026-05-07 17:33 56.80349 3.46426 34126 ft 480 kts 302°
2026-05-07 17:33 56.84067 3.36367 34118 ft 480 kts 301°
2026-05-07 17:34 56.87772 3.26221 34101 ft 479 kts 301°
2026-05-07 17:34 56.91458 3.16054 34103 ft 478 kts 301°
2026-05-07 17:35 56.95127 3.05888 34104 ft 478 kts 301°
2026-05-07 17:35 56.98767 2.95767 34093 ft 478 kts 301°
2026-05-07 17:36 57.02420 2.85568 34095 ft 478 kts 300°
2026-05-07 17:36 57.06067 2.75343 34081 ft 478 kts 300°
2026-05-07 17:37 57.09686 2.65155 34091 ft 478 kts 300°
2026-05-07 17:37 57.13312 2.54903 34080 ft 477 kts 300°
2026-05-07 17:38 57.16930 2.44630 34075 ft 477 kts 300°
2026-05-07 17:38 57.20535 2.34350 34088 ft 476 kts 300°
2026-05-07 17:39 57.24102 2.24134 34077 ft 476 kts 299°
2026-05-07 17:39 57.27686 2.13824 34075 ft 476 kts 299°
2026-05-07 17:40 57.31239 2.03561 34078 ft 476 kts 299°
2026-05-07 17:40 57.34803 1.93221 34074 ft 476 kts 299°
2026-05-07 17:41 57.38358 1.82862 34078 ft 475 kts 298°
2026-05-07 17:41 57.41900 1.72498 34066 ft 475 kts 298°
2026-05-07 17:42 57.45405 1.62198 34055 ft 473 kts 298°
2026-05-07 17:42 57.48918 1.51829 34058 ft 473 kts 298°
2026-05-07 17:43 57.52415 1.41461 34051 ft 472 kts 298°
2026-05-07 17:43 57.55877 1.31152 34051 ft 472 kts 298°
2026-05-07 17:44 57.59356 1.20746 34049 ft 472 kts 298°
2026-05-07 17:44 57.62814 1.10360 34051 ft 472 kts 297°
2026-05-07 17:45 57.66271 0.99932 34057 ft 472 kts 297°
2026-05-07 17:45 57.69692 0.89567 34027 ft 470 kts 297°
2026-05-07 17:46 57.73115 0.79152 34025 ft 468 kts 297°
2026-05-07 17:46 57.76496 0.68815 34027 ft 466 kts 297°
2026-05-07 17:47 57.79865 0.58469 34036 ft 466 kts 296°
2026-05-07 17:47 57.83240 0.48063 34016 ft 466 kts 296°
2026-05-07 17:48 57.86582 0.37630 34006 ft 462 kts 292°
2026-05-07 17:48 57.87746 0.32084 34006 ft 453 kts 279°
2026-05-07 17:48 57.88214 0.26321 34022 ft 447 kts 269°
2026-05-07 17:49 57.88119 0.20525 34001 ft 441 kts 258°
2026-05-07 17:49 57.87570 0.14855 34024 ft 441 kts 256°
2026-05-07 17:49 57.86451 0.03446 34012 ft 445 kts 257°
2026-05-07 17:50 57.85365 -0.07970 34000 ft 448 kts 257°
2026-05-07 17:50 57.84279 -0.19498 33995 ft 450 kts 257°
2026-05-07 17:51 57.83188 -0.31058 33989 ft 449 kts 256°
2026-05-07 17:51 57.82088 -0.42591 33990 ft 447 kts 256°
2026-05-07 17:52 57.80983 -0.54060 33982 ft 446 kts 256°
2026-05-07 17:52 57.79869 -0.65490 33982 ft 445 kts 256°
2026-05-07 17:53 57.78755 -0.76815 33973 ft 444 kts 256°
2026-05-07 17:53 57.77625 -0.88187 33972 ft 443 kts 256°
2026-05-07 17:54 57.76484 -0.99564 33962 ft 444 kts 256°
2026-05-07 17:54 57.75334 -1.10918 33962 ft 444 kts 256°
2026-05-07 17:55 57.74171 -1.22296 33974 ft 445 kts 255°
2026-05-07 17:55 57.73002 -1.33619 33959 ft 445 kts 255°
2026-05-07 17:56 57.71816 -1.45010 33951 ft 446 kts 255°
2026-05-07 17:56 57.70619 -1.56398 33942 ft 446 kts 255°
2026-05-07 17:57 57.69613 -1.65885 33948 ft 446 kts 255°
2026-05-07 17:57 57.68198 -1.79116 33937 ft 446 kts 255°
2026-05-07 17:58 57.67171 -1.88644 33940 ft 446 kts 254°
2026-05-07 17:58 57.65941 -1.99934 33924 ft 446 kts 254°
2026-05-07 17:59 57.64695 -2.11283 33922 ft 446 kts 254°
2026-05-07 17:59 57.63439 -2.22624 33912 ft 446 kts 253°
2026-05-07 18:00 57.62173 -2.33958 33912 ft 446 kts 253°
2026-05-07 18:00 57.60900 -2.45259 33927 ft 447 kts 253°
2026-05-07 18:01 57.59610 -2.56602 33896 ft 446 kts 253°
2026-05-07 18:01 57.58314 -2.67906 33881 ft 444 kts 253°
2026-05-07 18:02 57.56364 -2.84748 33887 ft 442 kts 253°
2026-05-07 18:03 57.55054 -2.95926 33874 ft 441 kts 253°
2026-05-07 18:03 57.53744 -3.07020 33864 ft 442 kts 252°
2026-05-07 18:04 57.52412 -3.18213 33866 ft 442 kts 252°
2026-05-07 18:04 57.51072 -3.29388 33864 ft 443 kts 252°
2026-05-07 18:05 57.49727 -3.40502 33854 ft 443 kts 252°
2026-05-07 18:05 57.48361 -3.51705 33854 ft 444 kts 252°
2026-05-07 18:06 57.46986 -3.62896 33885 ft 444 kts 251°
2026-05-07 18:06 57.45600 -3.74086 33870 ft 444 kts 251°
2026-05-07 18:07 57.44205 -3.85260 33857 ft 443 kts 251°
2026-05-07 18:07 57.42804 -3.96400 33858 ft 442 kts 251°
2026-05-07 18:08 57.41405 -4.07427 33849 ft 442 kts 251°
2026-05-07 18:08 57.39988 -4.18515 33886 ft 441 kts 251°
2026-05-07 18:09 57.38562 -4.29590 33863 ft 441 kts 251°
2026-05-07 18:09 57.37126 -4.40656 33857 ft 441 kts 251°
2026-05-07 18:10 57.35683 -4.51697 33850 ft 441 kts 251°
2026-05-07 18:10 57.34238 -4.62670 33859 ft 441 kts 251°
2026-05-07 18:11 57.32772 -4.73712 33853 ft 441 kts 250°
2026-05-07 18:11 57.31292 -4.84781 33860 ft 443 kts 251°
2026-05-07 18:12 57.29803 -4.95825 33860 ft 447 kts 251°
2026-05-07 18:12 57.28283 -5.07032 33854 ft 449 kts 251°
2026-05-07 18:13 57.26757 -5.18201 33845 ft 449 kts 251°
2026-05-07 18:13 57.25217 -5.29397 33857 ft 449 kts 250°
2026-05-07 18:14 57.23673 -5.40542 33876 ft 450 kts 250°
2026-05-07 18:14 57.22110 -5.51748 33871 ft 449 kts 250°
2026-05-07 18:15 57.20547 -5.62864 33857 ft 449 kts 250°
2026-05-07 18:15 57.18974 -5.73964 33857 ft 448 kts 250°
2026-05-07 18:16 57.17387 -5.85086 33837 ft 448 kts 250°
2026-05-07 18:16 57.15796 -5.96158 33877 ft 447 kts 250°
2026-05-07 18:17 57.14198 -6.07201 33848 ft 447 kts 250°
2026-05-07 18:17 57.12586 -6.18270 33835 ft 446 kts 250°
2026-05-07 18:18 57.10976 -6.29251 33842 ft 445 kts 250°
2026-05-07 18:18 57.09358 -6.40205 33835 ft 444 kts 250°
2026-05-07 18:19 57.07723 -6.51197 33835 ft 444 kts 250°
2026-05-07 18:19 57.06088 -6.62117 33828 ft 445 kts 250°
2026-05-07 18:20 57.04435 -6.73090 33827 ft 445 kts 250°
2026-05-07 18:20 57.02772 -6.84047 33827 ft 445 kts 250°
2026-05-07 18:21 57.01110 -6.94937 33821 ft 446 kts 250°
2026-05-07 18:21 56.99425 -7.05899 33822 ft 446 kts 249°
2026-05-07 18:22 56.97727 -7.16873 33823 ft 446 kts 249°
2026-05-07 18:22 56.96025 -7.27801 33816 ft 445 kts 249°
2026-05-07 18:23 56.94327 -7.38638 33816 ft 444 kts 249°
2026-05-07 18:23 56.92608 -7.49530 33816 ft 444 kts 249°
2026-05-07 18:24 56.90895 -7.60317 33808 ft 443 kts 249°
2026-05-07 18:24 56.89162 -7.71163 33816 ft 443 kts 249°
2026-05-07 18:25 56.87437 -7.81895 33806 ft 441 kts 248°
2026-05-07 18:25 56.85698 -7.92646 33773 ft 440 kts 249°
2026-05-07 18:26 56.83954 -8.03356 33795 ft 440 kts 249°
2026-05-07 18:26 56.82203 -8.14033 33804 ft 442 kts 249°
2026-05-07 18:27 56.80425 -8.24821 33814 ft 443 kts 248°
2026-05-07 18:27 56.78643 -8.35574 33796 ft 442 kts 248°
2026-05-07 18:28 56.76865 -8.46229 33801 ft 440 kts 248°
2026-05-07 18:28 56.75076 -8.56889 33801 ft 438 kts 248°
2026-05-07 18:29 56.73293 -8.67445 33798 ft 437 kts 248°
2026-05-07 18:29 56.71497 -8.78019 33837 ft 436 kts 248°
2026-05-07 18:30 56.69694 -8.88569 33810 ft 436 kts 248°
2026-05-07 18:30 56.67882 -8.99108 33794 ft 435 kts 248°
2026-05-07 18:31 56.66068 -9.09601 33793 ft 434 kts 248°
2026-05-07 18:31 56.64255 -9.20026 33801 ft 434 kts 248°
2026-05-07 18:32 56.62430 -9.30457 33794 ft 435 kts 247°
2026-05-07 18:32 56.60582 -9.40955 33805 ft 436 kts 248°
2026-05-07 18:33 56.58734 -9.51403 33799 ft 436 kts 248°
2026-05-07 18:33 56.56861 -9.61934 33809 ft 437 kts 248°
2026-05-07 18:34 56.54990 -9.72391 33808 ft 437 kts 248°
2026-05-07 18:34 56.53106 -9.82872 33810 ft 437 kts 248°
2026-05-07 18:35 56.51290 -9.93325 33808 ft 440 kts 253°
2026-05-07 18:35 56.50800 -10.04520 33817 ft 450 kts 267°
2026-05-07 18:36 56.51754 -10.15760 33822 ft 458 kts 277°
2026-05-07 18:36 56.53172 -10.27077 33804 ft 459 kts 277°
2026-05-07 18:37 56.54562 -10.38349 33806 ft 459 kts 276°
2026-05-07 18:37 56.55911 -10.49682 33833 ft 459 kts 277°
2026-05-07 18:38 56.57228 -10.60970 33810 ft 460 kts 277°
2026-05-07 18:38 56.58542 -10.72343 33811 ft 460 kts 276°
2026-05-07 18:39 56.59843 -10.83702 33803 ft 459 kts 276°
2026-05-07 18:39 56.61125 -10.94983 33805 ft 459 kts 276°
2026-05-07 18:40 56.62404 -11.06345 33824 ft 459 kts 276°
2026-05-07 18:40 56.63675 -11.17734 33818 ft 460 kts 277°
2026-05-07 18:41 56.64938 -11.29143 33814 ft 460 kts 277°
2026-05-07 18:41 56.66189 -11.40540 33803 ft 460 kts 276°
2026-05-07 18:42 56.67428 -11.51937 33807 ft 459 kts 276°
2026-05-07 18:42 56.68656 -11.63345 33804 ft 459 kts 276°
2026-05-07 18:43 56.69867 -11.74694 33831 ft 459 kts 277°
2026-05-07 18:43 56.71079 -11.86153 33807 ft 460 kts 277°
2026-05-07 18:44 56.72272 -11.97539 33805 ft 459 kts 277°
2026-05-07 18:44 56.73459 -12.08970 33806 ft 459 kts 277°
2026-05-07 18:45 56.74638 -12.20438 33805 ft 459 kts 277°
2026-05-07 18:45 56.75798 -12.31831 33814 ft 459 kts 276°
2026-05-07 18:46 56.76954 -12.43293 33818 ft 460 kts 277°
2026-05-07 18:46 56.78095 -12.54726 33819 ft 460 kts 277°
2026-05-07 18:47 56.79230 -12.66197 33816 ft 460 kts 277°
2026-05-07 18:47 56.80357 -12.77684 33823 ft 460 kts 277°
2026-05-07 18:48 56.81286 -12.87256 33821 ft 460 kts 277°
2026-05-07 18:48 56.82575 -13.00648 33833 ft 460 kts 277°
2026-05-07 18:49 56.83488 -13.10220 33826 ft 460 kts 277°
2026-05-07 18:49 56.84583 -13.21806 33840 ft 460 kts 277°
2026-05-07 18:50 56.85659 -13.33306 33844 ft 461 kts 277°
2026-05-07 18:50 56.86724 -13.44814 33842 ft 461 kts 276°
2026-05-07 18:51 56.87783 -13.56375 33844 ft 460 kts 277°
2026-05-07 18:51 56.88828 -13.67924 33842 ft 461 kts 277°
2026-05-07 18:52 56.89865 -13.79479 33880 ft 461 kts 276°
2026-05-07 18:52 56.90885 -13.90986 33865 ft 461 kts 276°
2026-05-07 18:53 56.91902 -14.02587 33866 ft 461 kts 277°
2026-05-07 18:53 56.92907 -14.14171 33873 ft 460 kts 276°
2026-05-07 18:54 56.93902 -14.25791 34118 ft 461 kts 276°
2026-05-07 18:54 56.94388 -14.31511 34334 ft 460 kts 276°
2026-05-07 18:54 56.94881 -14.37342 34469 ft 463 kts 276°
2026-05-07 18:54 56.95371 -14.43162 34780 ft 461 kts 276°
2026-05-07 18:55 56.95856 -14.48956 35146 ft 456 kts 276°
2026-05-07 18:55 56.96327 -14.54628 35380 ft 456 kts 277°
2026-05-07 18:55 56.96803 -14.60383 35639 ft 455 kts 276°
2026-05-07 18:56 56.97749 -14.71950 35808 ft 462 kts 276°
2026-05-07 18:56 56.98700 -14.83681 35892 ft 465 kts 276°
2026-05-07 18:57 56.99664 -14.95361 35893 ft 462 kts 279°
2026-05-07 18:57 57.01414 -15.06670 35918 ft 466 kts 289°
2026-05-07 18:58 57.03903 -15.17674 35921 ft 468 kts 290°
2026-05-07 18:58 57.06419 -15.28749 35934 ft 467 kts 290°
2026-05-07 18:59 57.08874 -15.39716 35899 ft 466 kts 290°
2026-05-07 18:59 57.11317 -15.50759 35922 ft 466 kts 290°
2026-05-07 19:00 57.13747 -15.61822 35931 ft 466 kts 290°
2026-05-07 19:00 57.16172 -15.72916 35944 ft 467 kts 290°
2026-05-07 19:01 57.18579 -15.83993 35960 ft 469 kts 289°
2026-05-07 19:01 57.20999 -15.95176 35957 ft 467 kts 290°
2026-05-07 19:02 57.23385 -16.06272 35959 ft 467 kts 289°
2026-05-07 19:02 57.25767 -16.17401 35946 ft 464 kts 289°
2026-05-07 19:03 57.28127 -16.28496 35947 ft 465 kts 290°
2026-05-07 19:03 57.30486 -16.39644 35969 ft 464 kts 290°
2026-05-07 19:04 57.32843 -16.50838 35984 ft 471 kts 290°
2026-05-07 19:04 57.35201 -16.62104 35985 ft 468 kts 289°
2026-05-07 19:05 57.37519 -16.73236 35988 ft 462 kts 290°
2026-05-07 19:05 57.39816 -16.84332 35980 ft 464 kts 290°
2026-05-07 19:06 57.42124 -16.95543 35988 ft 463 kts 289°
2026-05-07 19:06 57.45552 -17.12310 35984 ft 465 kts 290°
2026-05-07 19:07 57.47842 -17.23597 36011 ft 470 kts 290°
2026-05-07 19:07 57.50155 -17.35054 36003 ft 473 kts 289°
2026-05-07 19:08 57.52423 -17.46343 36022 ft 461 kts 290°
2026-05-07 19:08 57.54653 -17.57518 36013 ft 458 kts 289°
2026-05-07 19:09 57.56863 -17.68653 36043 ft 460 kts 289°
2026-05-07 19:09 57.59079 -17.79892 36033 ft 467 kts 290°
2026-05-07 19:10 57.61315 -17.91284 36029 ft 469 kts 290°
2026-05-07 19:10 57.63549 -18.02738 36049 ft 470 kts 289°
2026-05-07 19:11 57.65754 -18.14111 36022 ft 464 kts 289°
2026-05-07 19:11 57.67936 -18.25429 36061 ft 460 kts 289°
2026-05-07 19:12 57.70083 -18.36629 36041 ft 457 kts 289°
2026-05-07 19:12 57.72233 -18.47914 36075 ft 464 kts 290°
2026-05-07 19:13 57.74410 -18.59397 36071 ft 472 kts 290°
2026-05-07 19:13 57.76601 -18.71036 36065 ft 471 kts 290°
2026-05-07 19:14 57.78735 -18.82440 36070 ft 464 kts 289°
2026-05-07 19:14 57.80856 -18.93844 36071 ft 464 kts 289°
2026-05-07 19:15 57.82972 -19.05285 36049 ft 465 kts 289°
2026-05-07 19:15 57.85080 -19.16752 36060 ft 466 kts 289°
2026-05-07 19:16 57.87178 -19.28233 36068 ft 470 kts 289°
2026-05-07 19:16 57.89284 -19.39839 36103 ft 467 kts 289°
2026-05-07 19:17 57.91354 -19.51310 36112 ft 464 kts 289°
2026-05-07 19:17 57.93411 -19.62775 36077 ft 461 kts 289°
2026-05-07 19:18 57.95455 -19.74238 36123 ft 466 kts 289°
2026-05-07 19:18 57.97518 -19.85881 36114 ft 470 kts 289°
2026-05-07 19:19 57.99573 -19.97530 36119 ft 471 kts 290°
2026-05-07 19:19 58.02143 -20.08787 36125 ft 466 kts 296°
2026-05-07 19:20 58.04962 -20.19860 36127 ft 469 kts 296°
2026-05-07 19:20 58.07773 -20.31035 36127 ft 471 kts 296°
2026-05-07 19:21 58.10548 -20.42199 36114 ft 465 kts 296°
2026-05-07 19:21 58.13258 -20.53178 36136 ft 459 kts 296°
2026-05-07 19:22 58.15936 -20.64081 36127 ft 460 kts 296°
2026-05-07 19:22 58.18639 -20.75129 36145 ft 464 kts 296°
2026-05-07 19:23 58.21363 -20.86343 36141 ft 471 kts 296°
2026-05-07 19:23 58.24110 -20.97690 36156 ft 475 kts 296°
2026-05-07 19:24 58.26839 -21.09029 36126 ft 468 kts 295°
2026-05-07 19:24 58.29519 -21.20221 36155 ft 468 kts 295°
2026-05-07 19:25 58.32215 -21.31536 36157 ft 470 kts 295°
2026-05-07 19:25 58.34910 -21.42910 36157 ft 471 kts 295°
2026-05-07 19:26 58.37595 -21.54301 36157 ft 472 kts 295°
2026-05-07 19:26 58.40255 -21.65647 36145 ft 471 kts 295°
2026-05-07 19:27 58.42917 -21.77061 36153 ft 470 kts 295°
2026-05-07 19:27 58.45566 -21.88477 36161 ft 469 kts 295°
2026-05-07 19:28 58.48194 -21.99863 36168 ft 468 kts 295°
2026-05-07 19:28 58.50794 -22.11190 36171 ft 468 kts 295°
2026-05-07 19:29 58.53404 -22.22622 36176 ft 467 kts 295°
2026-05-07 19:29 58.55997 -22.34039 36177 ft 468 kts 295°
2026-05-07 19:30 58.58582 -22.45482 36180 ft 468 kts 295°
2026-05-07 19:30 58.61156 -22.56940 36171 ft 467 kts 295°
2026-05-07 19:31 58.63700 -22.68327 36187 ft 467 kts 295°
2026-05-07 19:31 58.66252 -22.79810 36188 ft 467 kts 295°
2026-05-07 19:32 58.68793 -22.91311 36188 ft 467 kts 295°
2026-05-07 19:32 58.71326 -23.02832 36192 ft 468 kts 295°
2026-05-07 19:33 58.73848 -23.14371 36199 ft 468 kts 295°
2026-05-07 19:33 58.76364 -23.25947 36202 ft 468 kts 295°
2026-05-07 19:34 58.78867 -23.37526 36196 ft 468 kts 295°
2026-05-07 19:34 58.81356 -23.49105 36202 ft 467 kts 295°
2026-05-07 19:35 58.83817 -23.60615 36204 ft 467 kts 295°
2026-05-07 19:35 58.86286 -23.72232 36206 ft 467 kts 295°
2026-05-07 19:36 58.88744 -23.83862 36212 ft 467 kts 295°
2026-05-07 19:36 58.91193 -23.95516 36215 ft 467 kts 295°
2026-05-07 19:37 58.93613 -24.07091 36221 ft 467 kts 295°
2026-05-07 19:37 58.96040 -24.18773 36226 ft 467 kts 295°
2026-05-07 19:38 58.98453 -24.30455 36216 ft 467 kts 295°
2026-05-07 19:38 59.00452 -24.40184 36228 ft 466 kts 295°
2026-05-07 19:39 59.03234 -24.53799 36232 ft 466 kts 295°
2026-05-07 19:39 59.05229 -24.63617 36235 ft 466 kts 295°
2026-05-07 19:40 59.07600 -24.75354 36239 ft 466 kts 294°
2026-05-07 19:40 59.09943 -24.87017 36245 ft 466 kts 294°
2026-05-07 19:41 59.12295 -24.98795 36243 ft 467 kts 294°
2026-05-07 19:41 59.14634 -25.10577 36221 ft 467 kts 294°
2026-05-07 19:42 59.16965 -25.22389 36242 ft 466 kts 294°
2026-05-07 19:42 59.19283 -25.34209 36257 ft 465 kts 294°
2026-05-07 19:43 59.21573 -25.45951 36265 ft 465 kts 294°
2026-05-07 19:43 59.23865 -25.57774 36266 ft 465 kts 294°
2026-05-07 19:44 59.26145 -25.69608 36256 ft 465 kts 294°
2026-05-07 19:44 59.28414 -25.81455 36269 ft 465 kts 294°
2026-05-07 19:45 59.30670 -25.93308 36274 ft 465 kts 294°
2026-05-07 19:45 59.32916 -26.05183 36262 ft 464 kts 294°
2026-05-07 19:46 59.35134 -26.16979 36264 ft 464 kts 294°
2026-05-07 19:46 59.37355 -26.28866 36276 ft 464 kts 294°
2026-05-07 19:47 59.39566 -26.40769 36280 ft 464 kts 294°
2026-05-07 19:47 59.41771 -26.52711 36280 ft 464 kts 294°
2026-05-07 19:48 59.43959 -26.64644 36291 ft 464 kts 294°
2026-05-07 19:48 59.46124 -26.76520 36291 ft 464 kts 294°
2026-05-07 19:49 59.48292 -26.88494 36286 ft 464 kts 294°
2026-05-07 19:49 59.50448 -27.00474 36294 ft 463 kts 294°
2026-05-07 19:50 59.52586 -27.12428 36293 ft 463 kts 294°
2026-05-07 19:50 59.54715 -27.24408 36297 ft 462 kts 294°
2026-05-07 19:51 59.56817 -27.36311 36304 ft 462 kts 294°
2026-05-07 19:51 59.58918 -27.48287 36304 ft 462 kts 293°
2026-05-07 19:52 59.61011 -27.60293 36293 ft 462 kts 294°
2026-05-07 19:52 59.63089 -27.72296 36315 ft 461 kts 293°
2026-05-07 19:53 59.65157 -27.84313 36313 ft 462 kts 293°
2026-05-07 19:53 59.67202 -27.96276 36318 ft 462 kts 293°
2026-05-07 19:54 59.69251 -28.08342 36317 ft 462 kts 293°
2026-05-07 19:54 59.71288 -28.20419 36315 ft 462 kts 293°
2026-05-07 19:55 59.73304 -28.32450 36321 ft 462 kts 293°
2026-05-07 19:55 59.75320 -28.44565 36328 ft 462 kts 293°
2026-05-07 19:56 59.77329 -28.56713 36336 ft 463 kts 293°
2026-05-07 19:56 59.79325 -28.68872 36336 ft 463 kts 293°
2026-05-07 19:57 59.81297 -28.80962 36315 ft 462 kts 293°
2026-05-07 19:57 59.83269 -28.93139 36334 ft 462 kts 293°
2026-05-07 19:58 59.85226 -29.05308 36342 ft 461 kts 293°
2026-05-07 19:58 59.87168 -29.17460 36344 ft 461 kts 292°
2026-05-07 19:59 59.89084 -29.29541 36341 ft 460 kts 293°
2026-05-07 19:59 59.91000 -29.41699 36346 ft 460 kts 292°
2026-05-07 20:00 59.92905 -29.53873 36361 ft 460 kts 292°
2026-05-07 20:00 59.94801 -29.66084 36362 ft 460 kts 292°
2026-05-07 20:01 59.96682 -29.78278 36355 ft 459 kts 293°
2026-05-07 20:01 59.98552 -29.90476 36359 ft 459 kts 292°
2026-05-07 20:02 60.00402 -30.02680 36346 ft 459 kts 292°
2026-05-07 20:02 60.02146 -30.14960 36355 ft 459 kts 292°
2026-05-07 20:03 60.03830 -30.27182 36366 ft 459 kts 291°
2026-05-07 20:03 60.05527 -30.39525 36371 ft 459 kts 291°
2026-05-07 20:04 60.07142 -30.51290 36377 ft 459 kts 291°
2026-05-07 20:04 60.08816 -30.63548 36380 ft 459 kts 291°
2026-05-07 20:05 60.10486 -30.75877 36368 ft 457 kts 292°
2026-05-07 20:05 60.12140 -30.88185 36360 ft 456 kts 292°
2026-05-07 20:06 60.13779 -31.00480 36373 ft 455 kts 292°
2026-05-07 20:06 60.15402 -31.12748 36378 ft 454 kts 292°
2026-05-07 20:07 60.17007 -31.24976 36389 ft 454 kts 292°
2026-05-07 20:07 60.18605 -31.37249 36388 ft 454 kts 291°
2026-05-07 20:08 60.20193 -31.49541 36388 ft 454 kts 291°
2026-05-07 20:08 60.21770 -31.61854 36324 ft 455 kts 291°
2026-05-07 20:09 60.23326 -31.74113 36364 ft 453 kts 291°
2026-05-07 20:10 60.25646 -31.92559 36398 ft 452 kts 291°
2026-05-07 20:10 60.27169 -32.04796 36393 ft 452 kts 291°
2026-05-07 20:11 60.28690 -32.17126 36402 ft 452 kts 291°
2026-05-07 20:11 60.30197 -32.29445 36405 ft 453 kts 291°
2026-05-07 20:12 60.31694 -32.41779 36399 ft 453 kts 291°
2026-05-07 20:12 60.33181 -32.54148 36403 ft 453 kts 291°
2026-05-07 20:13 60.34654 -32.66509 36371 ft 452 kts 290°
2026-05-07 20:13 60.36117 -32.78880 36396 ft 453 kts 290°
2026-05-07 20:14 60.37572 -32.91290 36405 ft 454 kts 290°
2026-05-07 20:14 60.39019 -33.03747 36407 ft 456 kts 290°
2026-05-07 20:15 60.40450 -33.16178 36401 ft 456 kts 289°
2026-05-07 20:15 60.41877 -33.28694 36404 ft 457 kts 289°
2026-05-07 20:16 60.43293 -33.41227 36404 ft 457 kts 289°
2026-05-07 20:16 60.44698 -33.53782 36404 ft 456 kts 289°
2026-05-07 20:17 60.46081 -33.66240 36394 ft 455 kts 289°
2026-05-07 20:17 60.47460 -33.78789 36398 ft 455 kts 289°
2026-05-07 20:18 60.48824 -33.91319 36402 ft 454 kts 288°
2026-05-07 20:18 60.50167 -34.03769 36406 ft 454 kts 288°
2026-05-07 20:19 60.51506 -34.16302 36404 ft 454 kts 288°
2026-05-07 20:19 60.52834 -34.28851 36409 ft 455 kts 288°
2026-05-07 20:20 60.54152 -34.41419 36398 ft 455 kts 288°
2026-05-07 20:20 60.55460 -34.54027 36361 ft 455 kts 287°
2026-05-07 20:21 60.56746 -34.66549 36393 ft 455 kts 287°
2026-05-07 20:21 60.58030 -34.79167 36405 ft 455 kts 287°
2026-05-07 20:22 60.59301 -34.91785 36407 ft 456 kts 287°
2026-05-07 20:22 60.60562 -35.04432 36395 ft 456 kts 287°
2026-05-07 20:23 60.61809 -35.17076 36386 ft 456 kts 287°
2026-05-07 20:23 60.63038 -35.29668 36397 ft 456 kts 286°
2026-05-07 20:24 60.64263 -35.42341 36391 ft 456 kts 286°
2026-05-07 20:24 60.65476 -35.55025 36358 ft 456 kts 285°
2026-05-07 20:25 60.66678 -35.67731 36385 ft 457 kts 285°
2026-05-07 20:25 60.67874 -35.80500 36396 ft 459 kts 285°
2026-05-07 20:26 60.69063 -35.93350 36390 ft 460 kts 285°
2026-05-07 20:26 60.70240 -36.06211 36391 ft 461 kts 285°
2026-05-07 20:27 60.71406 -36.19101 36382 ft 462 kts 284°
2026-05-07 20:27 60.72368 -36.29846 36384 ft 462 kts 284°
2026-05-07 20:28 60.73699 -36.44879 36387 ft 463 kts 284°
2026-05-07 20:28 60.74642 -36.55649 36343 ft 463 kts 283°
2026-05-07 20:29 60.75763 -36.68599 36368 ft 462 kts 283°
2026-05-07 20:29 60.76871 -36.81563 36376 ft 462 kts 283°
2026-05-07 20:30 60.77969 -36.94548 36373 ft 463 kts 283°
2026-05-07 20:30 60.79049 -37.07483 36371 ft 463 kts 282°
2026-05-07 20:31 60.80124 -37.20516 36380 ft 463 kts 282°
2026-05-07 20:31 60.81185 -37.33542 36369 ft 464 kts 282°
2026-05-07 20:32 60.82229 -37.46511 36367 ft 464 kts 282°
2026-05-07 20:32 60.83267 -37.59582 36371 ft 464 kts 282°
2026-05-07 20:33 60.84292 -37.72667 36366 ft 464 kts 282°
2026-05-07 20:33 60.85299 -37.85668 36364 ft 464 kts 282°
2026-05-07 20:34 60.86299 -37.98772 36351 ft 464 kts 281°
2026-05-07 20:34 60.87282 -38.11814 36360 ft 464 kts 281°
2026-05-07 20:35 60.88258 -38.24948 36359 ft 465 kts 281°
2026-05-07 20:35 60.89220 -38.38073 36355 ft 465 kts 281°
2026-05-07 20:36 60.90171 -38.51226 36351 ft 465 kts 281°
2026-05-07 20:36 60.91110 -38.64391 36345 ft 464 kts 280°
2026-05-07 20:37 60.92027 -38.77459 36350 ft 464 kts 280°
2026-05-07 20:37 60.92940 -38.90632 36347 ft 464 kts 280°
2026-05-07 20:38 60.93837 -39.03790 36343 ft 463 kts 279°
2026-05-07 20:38 60.94720 -39.16911 36345 ft 463 kts 279°
2026-05-07 20:39 60.95584 -39.29971 36345 ft 463 kts 279°
2026-05-07 20:39 60.96442 -39.43115 36337 ft 463 kts 279°
2026-05-07 20:40 60.97285 -39.56249 36319 ft 463 kts 279°
2026-05-07 20:40 60.98115 -39.69387 36333 ft 461 kts 279°
2026-05-07 20:41 60.98929 -39.82447 36328 ft 459 kts 279°
2026-05-07 20:41 60.99729 -39.95480 36327 ft 457 kts 279°
2026-05-07 20:42 61.01072 -40.08206 36327 ft 453 kts 288°
2026-05-07 20:42 61.02836 -40.20585 36327 ft 453 kts 288°
2026-05-07 20:43 61.04597 -40.33073 36320 ft 453 kts 287°
2026-05-07 20:43 61.06334 -40.45622 36318 ft 454 kts 287°
2026-05-07 20:44 61.08050 -40.58192 36319 ft 455 kts 287°
2026-05-07 20:44 61.09756 -40.70800 36295 ft 456 kts 287°
2026-05-07 20:45 61.11455 -40.83461 36323 ft 456 kts 287°
2026-05-07 20:45 61.13142 -40.96129 36308 ft 457 kts 287°
2026-05-07 20:46 61.14820 -41.08833 36302 ft 458 kts 287°
2026-05-07 20:46 61.16490 -41.21579 36302 ft 458 kts 286°
2026-05-07 20:47 61.18136 -41.34241 36311 ft 458 kts 286°
2026-05-07 20:47 61.19780 -41.47002 36296 ft 458 kts 286°
2026-05-07 20:48 61.21412 -41.59769 36299 ft 458 kts 285°
2026-05-07 20:48 61.23030 -41.72538 36293 ft 457 kts 285°
2026-05-07 20:49 61.24636 -41.85312 36295 ft 457 kts 285°
2026-05-07 20:49 61.26228 -41.98092 36277 ft 457 kts 285°
2026-05-07 20:50 61.27806 -42.10867 36295 ft 456 kts 285°
2026-05-07 20:50 61.29375 -42.23677 36294 ft 456 kts 285°
2026-05-07 20:51 61.30916 -42.36371 36279 ft 455 kts 285°
2026-05-07 20:51 61.32455 -42.49155 36279 ft 455 kts 284°
2026-05-07 20:52 61.33983 -42.61965 36288 ft 455 kts 284°
2026-05-07 20:52 61.35502 -42.74808 36278 ft 455 kts 284°
2026-05-07 20:53 61.36997 -42.87569 36282 ft 456 kts 284°
2026-05-07 20:53 61.38491 -43.00423 36285 ft 455 kts 284°
2026-05-07 20:54 61.39970 -43.13277 36267 ft 455 kts 284°
2026-05-07 20:54 61.41435 -43.26128 36243 ft 454 kts 283°
2026-05-07 20:55 61.42878 -43.38898 36263 ft 454 kts 283°
2026-05-07 20:55 61.44314 -43.51725 36262 ft 453 kts 283°
2026-05-07 20:56 61.45737 -43.64562 36233 ft 453 kts 283°
2026-05-07 20:56 61.47150 -43.77415 36224 ft 453 kts 282°
2026-05-07 20:57 61.48548 -43.90269 36204 ft 453 kts 282°
2026-05-07 20:57 61.49933 -44.03118 36211 ft 452 kts 282°
2026-05-07 20:58 61.51306 -44.15978 36210 ft 452 kts 282°
2026-05-07 20:58 61.52660 -44.28786 36204 ft 453 kts 282°
2026-05-07 20:59 61.54011 -44.41688 36218 ft 453 kts 282°
2026-05-07 20:59 61.55350 -44.54605 36204 ft 453 kts 281°
2026-05-07 21:00 61.56675 -44.67511 36224 ft 452 kts 281°
2026-05-07 21:00 61.57983 -44.80392 36232 ft 451 kts 281°
2026-05-07 21:01 61.59280 -44.93295 36235 ft 450 kts 281°
2026-05-07 21:01 61.60554 -45.06089 36211 ft 450 kts 281°
2026-05-07 21:02 61.61822 -45.18962 36216 ft 449 kts 281°
2026-05-07 21:02 61.63079 -45.31853 36237 ft 449 kts 280°
2026-05-07 21:03 61.64314 -45.44654 36222 ft 449 kts 280°
2026-05-07 21:03 61.65544 -45.57538 36222 ft 448 kts 280°
2026-05-07 21:04 61.66758 -45.70388 36223 ft 447 kts 279°
2026-05-07 21:04 61.67958 -45.83225 36234 ft 447 kts 279°
2026-05-07 21:05 61.69147 -45.96082 36228 ft 447 kts 279°
2026-05-07 21:05 61.70315 -46.08866 36227 ft 447 kts 279°
2026-05-07 21:06 61.71480 -46.21752 36232 ft 447 kts 278°
2026-05-07 21:06 61.72633 -46.34646 36231 ft 447 kts 278°
2026-05-07 21:07 61.73773 -46.47533 36228 ft 447 kts 278°
2026-05-07 21:07 61.74900 -46.60420 36225 ft 447 kts 278°
2026-05-07 21:08 61.76008 -46.73247 36224 ft 447 kts 278°
2026-05-07 21:08 61.77111 -46.86162 36220 ft 446 kts 278°
2026-05-07 21:09 61.78203 -46.99081 36223 ft 446 kts 278°
2026-05-07 21:09 61.79281 -47.12008 36200 ft 446 kts 278°
2026-05-07 21:10 61.80345 -47.24926 36199 ft 445 kts 278°
2026-05-07 21:10 61.81386 -47.37704 36195 ft 444 kts 278°
2026-05-07 21:11 61.82424 -47.50603 36182 ft 443 kts 278°
2026-05-07 21:11 61.83953 -47.69904 36181 ft 443 kts 277°
2026-05-07 21:12 61.84957 -47.82778 36182 ft 443 kts 277°
2026-05-07 21:12 61.85939 -47.95541 36176 ft 443 kts 277°
2026-05-07 21:13 61.86919 -48.08438 36168 ft 443 kts 277°
2026-05-07 21:13 61.87886 -48.21314 36166 ft 442 kts 277°
2026-05-07 21:14 61.88679 -48.32005 36170 ft 442 kts 277°
2026-05-07 21:14 61.89773 -48.46967 36167 ft 442 kts 277°
2026-05-07 21:15 61.90547 -48.57682 36181 ft 442 kts 276°
2026-05-07 21:15 61.91468 -48.70609 36157 ft 442 kts 276°
2026-05-07 21:16 61.92374 -48.83494 36152 ft 441 kts 276°
2026-05-07 21:16 61.93267 -48.96365 36144 ft 441 kts 276°
2026-05-07 21:17 61.94146 -49.09224 36153 ft 440 kts 276°
2026-05-07 21:17 61.95014 -49.22096 36154 ft 440 kts 275°
2026-05-07 21:18 61.95868 -49.34960 36148 ft 440 kts 275°
2026-05-07 21:18 61.96712 -49.47858 36156 ft 441 kts 275°
2026-05-07 21:19 61.97546 -49.60781 36147 ft 441 kts 275°
2026-05-07 21:19 61.98367 -49.73684 36141 ft 441 kts 275°
2026-05-07 21:20 61.99171 -49.86512 36144 ft 440 kts 275°
2026-05-07 21:20 61.99511 -49.99462 36147 ft 437 kts 265°
2026-05-07 21:21 61.98853 -50.12280 36140 ft 435 kts 257°
2026-05-07 21:21 61.97612 -50.24844 36145 ft 435 kts 257°
2026-05-07 21:22 61.96334 -50.37434 36140 ft 435 kts 257°
2026-05-07 21:22 61.95064 -50.49995 36134 ft 435 kts 257°
2026-05-07 21:23 61.93797 -50.62530 36130 ft 436 kts 257°
2026-05-07 21:23 61.92513 -50.75155 36131 ft 436 kts 257°
2026-05-07 21:24 61.91231 -50.87642 36125 ft 436 kts 256°
2026-05-07 21:24 61.89926 -51.00227 36125 ft 436 kts 256°
2026-05-07 21:25 61.88610 -51.12795 36123 ft 436 kts 256°
2026-05-07 21:25 61.87287 -51.25311 36118 ft 435 kts 256°
2026-05-07 21:26 61.85950 -51.37837 36116 ft 435 kts 256°
2026-05-07 21:26 61.84608 -51.50293 36114 ft 436 kts 255°
2026-05-07 21:27 61.83252 -51.62768 36109 ft 435 kts 255°
2026-05-07 21:27 61.81885 -51.75225 36100 ft 434 kts 255°
2026-05-07 21:28 61.80510 -51.87641 36091 ft 433 kts 255°
2026-05-07 21:28 61.79127 -52.00022 36087 ft 432 kts 255°
2026-05-07 21:29 61.77742 -52.12303 36095 ft 432 kts 255°
2026-05-07 21:29 61.76334 -52.24684 36083 ft 432 kts 255°
2026-05-07 21:30 61.74919 -52.37019 36088 ft 432 kts 255°
2026-05-07 21:30 61.73493 -52.49342 36083 ft 432 kts 254°
2026-05-07 21:31 61.72064 -52.61577 36110 ft 433 kts 253°
2026-05-07 21:31 61.70611 -52.73921 36077 ft 433 kts 253°
2026-05-07 21:32 61.69144 -52.86273 36061 ft 433 kts 253°
2026-05-07 21:32 61.67671 -52.98578 36059 ft 433 kts 253°
2026-05-07 21:33 61.66197 -53.10783 36057 ft 432 kts 253°
2026-05-07 21:33 61.64701 -53.23070 36049 ft 432 kts 253°
2026-05-07 21:34 61.63195 -53.35332 36047 ft 432 kts 253°
2026-05-07 21:34 61.61683 -53.47546 36049 ft 432 kts 252°
2026-05-07 21:35 61.60157 -53.59764 36039 ft 432 kts 252°
2026-05-07 21:35 61.58631 -53.71894 36039 ft 432 kts 252°
2026-05-07 21:36 61.57084 -53.84092 36032 ft 432 kts 252°
2026-05-07 21:36 61.55524 -53.96291 36022 ft 432 kts 252°
2026-05-07 21:37 61.53966 -54.08381 36037 ft 432 kts 252°
2026-05-07 21:37 61.52385 -54.20555 36031 ft 431 kts 252°
2026-05-07 21:38 61.50806 -54.32614 36026 ft 431 kts 251°
2026-05-07 21:38 61.49210 -54.44706 36008 ft 431 kts 251°
2026-05-07 21:39 61.47604 -54.56788 36013 ft 431 kts 251°
2026-05-07 21:39 61.45984 -54.68878 36007 ft 431 kts 251°
2026-05-07 21:40 61.44351 -54.80974 36011 ft 431 kts 251°
2026-05-07 21:40 61.42718 -54.92976 36007 ft 432 kts 251°
2026-05-07 21:41 61.41065 -55.05038 36007 ft 432 kts 250°
2026-05-07 21:41 61.39397 -55.17118 35998 ft 432 kts 250°
2026-05-07 21:42 61.37718 -55.29186 35989 ft 432 kts 250°
2026-05-07 21:42 61.36040 -55.41158 35993 ft 432 kts 250°
2026-05-07 21:43 61.34341 -55.53193 35988 ft 432 kts 250°
2026-05-07 21:43 61.32633 -55.65203 35978 ft 432 kts 250°
2026-05-07 21:44 61.30921 -55.77149 35980 ft 432 kts 250°
2026-05-07 21:44 61.29192 -55.89136 35961 ft 432 kts 249°
2026-05-07 21:45 61.27452 -56.01107 35987 ft 433 kts 249°
2026-05-07 21:45 61.25702 -56.13060 35972 ft 434 kts 249°
2026-05-07 21:46 61.23937 -56.25035 35958 ft 434 kts 249°
2026-05-07 21:46 61.22156 -56.37028 35959 ft 434 kts 249°
2026-05-07 21:47 61.20369 -56.48979 35953 ft 434 kts 249°
2026-05-07 21:47 61.18571 -56.60921 35951 ft 433 kts 249°
2026-05-07 21:48 61.16763 -56.72847 35949 ft 433 kts 248°
2026-05-07 21:48 61.14945 -56.84755 35947 ft 434 kts 248°
2026-05-07 21:49 61.13118 -56.96636 35937 ft 434 kts 248°
2026-05-07 21:49 61.11282 -57.08496 35976 ft 435 kts 248°
2026-05-07 21:50 61.09421 -57.20439 35937 ft 436 kts 248°
2026-05-07 21:50 61.07551 -57.32357 35924 ft 436 kts 248°
2026-05-07 21:51 61.05670 -57.44266 35926 ft 435 kts 247°
2026-05-07 21:51 61.03798 -57.56043 35925 ft 435 kts 247°
2026-05-07 21:52 61.01898 -57.67911 35921 ft 435 kts 247°
2026-05-07 21:52 60.99990 -57.79762 35916 ft 435 kts 247°
2026-05-07 21:53 60.98078 -57.91557 35918 ft 436 kts 246°
2026-05-07 21:53 60.95682 -58.02921 35922 ft 430 kts 238°
2026-05-07 21:54 60.92516 -58.13314 35912 ft 428 kts 233°
2026-05-07 21:54 60.89249 -58.23490 35903 ft 430 kts 233°
2026-05-07 21:55 60.85935 -58.33830 35897 ft 430 kts 233°
2026-05-07 21:55 60.82668 -58.44013 35907 ft 430 kts 233°
2026-05-07 21:56 60.79371 -58.54254 35891 ft 430 kts 233°
2026-05-07 21:56 60.76067 -58.64470 35889 ft 430 kts 233°
2026-05-07 21:57 60.72772 -58.74611 35883 ft 430 kts 233°
2026-05-07 21:57 60.69454 -58.84782 35885 ft 430 kts 232°
2026-05-07 21:58 60.66126 -58.94936 35884 ft 430 kts 232°
2026-05-07 21:58 60.62785 -59.05085 35876 ft 430 kts 232°
2026-05-07 21:59 60.59448 -59.15178 35872 ft 430 kts 232°
2026-05-07 21:59 60.56113 -59.25222 35872 ft 430 kts 232°
2026-05-07 22:00 60.52759 -59.35280 35868 ft 430 kts 232°
2026-05-07 22:00 60.49384 -59.45356 35868 ft 431 kts 232°
2026-05-07 22:01 60.46008 -59.55391 35859 ft 432 kts 232°
2026-05-07 22:01 60.42632 -59.65383 35856 ft 432 kts 232°
2026-05-07 22:02 60.39218 -59.75445 35860 ft 434 kts 232°
2026-05-07 22:02 60.35798 -59.85481 35855 ft 434 kts 231°
2026-05-07 22:03 60.32938 -59.93842 35852 ft 433 kts 231°
2026-05-07 22:03 60.29508 -60.03832 35850 ft 433 kts 231°
2026-05-07 22:04 60.26050 -60.13856 35842 ft 433 kts 231°
2026-05-07 22:04 60.22608 -60.23792 35840 ft 433 kts 231°
2026-05-07 22:05 60.19177 -60.33655 35837 ft 432 kts 231°
2026-05-07 22:05 60.15725 -60.43535 35834 ft 432 kts 231°
2026-05-07 22:06 60.12279 -60.53359 35830 ft 432 kts 230°
2026-05-07 22:06 60.08800 -60.63230 35833 ft 433 kts 230°
2026-05-07 22:07 60.05308 -60.73101 35831 ft 434 kts 230°
2026-05-07 22:07 60.01808 -60.82951 35829 ft 435 kts 230°
2026-05-07 22:08 59.98326 -60.92711 35821 ft 435 kts 230°
2026-05-07 22:08 59.94800 -61.02554 35820 ft 435 kts 230°
2026-05-07 22:09 59.91261 -61.12392 35830 ft 437 kts 230°
2026-05-07 22:09 59.87693 -61.22266 35822 ft 438 kts 230°
2026-05-07 22:10 59.84129 -61.32090 35809 ft 438 kts 230°
2026-05-07 22:10 59.80573 -61.41856 35809 ft 438 kts 230°
2026-05-07 22:11 59.77004 -61.51619 35805 ft 438 kts 230°
2026-05-07 22:11 59.73750 -61.61920 35813 ft 443 kts 238°
2026-05-07 22:12 59.71312 -61.73248 35804 ft 450 kts 246°
2026-05-07 22:12 59.69374 -61.85001 35799 ft 452 kts 246°
2026-05-07 22:13 59.67427 -61.96834 35803 ft 452 kts 246°
2026-05-07 22:13 59.65449 -62.08663 35799 ft 452 kts 246°
2026-05-07 22:14 59.63455 -62.20447 35794 ft 452 kts 245°
2026-05-07 22:14 59.61447 -62.32213 35791 ft 452 kts 245°
2026-05-07 22:15 59.59434 -62.43937 35801 ft 452 kts 245°
2026-05-07 22:15 59.57410 -62.55649 35793 ft 452 kts 245°
2026-05-07 22:16 59.55367 -62.67400 35789 ft 453 kts 245°
2026-05-07 22:16 59.53312 -62.79144 35786 ft 453 kts 245°
2026-05-07 22:17 59.51258 -62.90815 35786 ft 453 kts 245°
2026-05-07 22:17 59.49175 -63.02571 35786 ft 453 kts 245°
2026-05-07 22:18 59.46046 -63.20091 35790 ft 454 kts 245°
2026-05-07 22:19 59.43930 -63.31846 35791 ft 455 kts 245°
2026-05-07 22:19 59.41822 -63.43488 35782 ft 455 kts 245°
2026-05-07 22:20 59.39688 -63.55205 35785 ft 455 kts 245°
2026-05-07 22:20 59.37540 -63.66923 35785 ft 455 kts 245°
2026-05-07 22:21 59.35386 -63.78599 35776 ft 455 kts 245°
2026-05-07 22:21 59.33222 -63.90268 35780 ft 454 kts 245°
2026-05-07 22:22 59.31050 -64.01901 35811 ft 454 kts 245°
2026-05-07 22:22 59.28881 -64.13459 35800 ft 456 kts 245°
2026-05-07 22:23 59.26285 -64.24685 35778 ft 451 kts 236°
2026-05-07 22:23 59.22777 -64.34803 35780 ft 446 kts 228°
2026-05-07 22:24 59.18913 -64.44168 35778 ft 446 kts 227°
2026-05-07 22:24 59.14997 -64.53630 35777 ft 447 kts 227°
2026-05-07 22:25 59.11102 -64.63061 35769 ft 447 kts 227°
2026-05-07 22:25 59.07210 -64.72479 35760 ft 446 kts 227°
2026-05-07 22:26 59.03334 -64.81825 35764 ft 446 kts 227°
2026-05-07 22:26 58.99429 -64.91204 35757 ft 446 kts 227°
2026-05-07 22:27 58.95510 -65.00574 35751 ft 447 kts 227°
2026-05-07 22:27 58.91593 -65.09904 35772 ft 446 kts 227°
2026-05-07 22:28 58.87699 -65.19145 35762 ft 447 kts 227°
2026-05-07 22:28 58.83755 -65.28462 35759 ft 449 kts 227°
2026-05-07 22:29 58.79790 -65.37794 35750 ft 449 kts 227°
2026-05-07 22:29 58.75821 -65.47098 35749 ft 449 kts 227°
2026-05-07 22:30 58.71839 -65.56397 35743 ft 450 kts 227°
2026-05-07 22:30 58.67873 -65.65623 35746 ft 450 kts 227°
2026-05-07 22:31 58.63862 -65.74914 35752 ft 450 kts 227°
2026-05-07 22:31 58.59847 -65.84179 35749 ft 451 kts 227°
2026-05-07 22:32 58.55867 -65.93327 35745 ft 451 kts 227°
2026-05-07 22:32 58.51843 -66.02542 35746 ft 451 kts 226°
2026-05-07 22:33 58.47822 -66.11712 35751 ft 451 kts 226°
2026-05-07 22:33 58.43758 -66.20942 35748 ft 452 kts 226°
2026-05-07 22:34 58.39727 -66.30064 35742 ft 452 kts 226°
2026-05-07 22:34 58.35659 -66.39234 35741 ft 452 kts 226°
2026-05-07 22:35 58.31584 -66.48382 35736 ft 453 kts 226°
2026-05-07 22:35 58.27527 -66.57455 35746 ft 454 kts 226°
2026-05-07 22:36 58.23416 -66.66616 35749 ft 455 kts 226°
2026-05-07 22:36 58.19292 -66.75767 35749 ft 456 kts 226°
2026-05-07 22:37 58.15176 -66.84868 35749 ft 456 kts 226°
2026-05-07 22:37 58.11043 -66.93976 35752 ft 457 kts 226°
2026-05-07 22:38 58.06862 -67.03082 35759 ft 456 kts 225°
2026-05-07 22:38 58.02523 -67.11881 35751 ft 456 kts 224°
2026-05-07 22:39 57.98144 -67.20564 35752 ft 456 kts 223°
2026-05-07 22:39 57.93804 -67.29195 35752 ft 456 kts 224°
2026-05-07 22:40 57.89476 -67.37827 35755 ft 456 kts 224°
2026-05-07 22:40 57.85107 -67.46525 35767 ft 456 kts 224°
2026-05-07 22:41 57.80765 -67.55140 35758 ft 457 kts 224°
2026-05-07 22:41 57.76385 -67.63796 35797 ft 457 kts 224°
2026-05-07 22:42 57.71999 -67.72432 35771 ft 458 kts 223°
2026-05-07 22:42 57.67590 -67.81077 35767 ft 459 kts 223°
2026-05-07 22:43 57.63176 -67.89702 35778 ft 459 kts 223°
2026-05-07 22:43 57.58777 -67.98262 35773 ft 460 kts 223°
2026-05-07 22:44 57.54330 -68.06886 35782 ft 460 kts 223°
2026-05-07 22:44 57.49882 -68.15480 35774 ft 461 kts 223°
2026-05-07 22:45 57.45428 -68.24052 35775 ft 461 kts 223°
2026-05-07 22:45 57.40976 -68.32588 35780 ft 461 kts 223°
2026-05-07 22:46 57.36500 -68.41140 35775 ft 461 kts 223°
2026-05-07 22:46 57.32097 -68.49520 35771 ft 461 kts 223°
2026-05-07 22:47 57.27588 -68.58069 35769 ft 461 kts 223°
2026-05-07 22:47 57.23131 -68.66489 35775 ft 461 kts 223°
2026-05-07 22:48 57.18622 -68.74976 35779 ft 463 kts 223°
2026-05-07 22:48 57.14142 -68.83374 35798 ft 466 kts 223°
2026-05-07 22:49 57.09513 -68.92020 35791 ft 470 kts 223°
2026-05-07 22:49 57.04961 -69.00494 35772 ft 472 kts 223°
2026-05-07 22:50 57.00316 -69.09109 35763 ft 473 kts 223°
2026-05-07 22:50 56.95687 -69.17663 35767 ft 473 kts 223°
2026-05-07 22:51 56.91087 -69.26130 35766 ft 472 kts 223°
2026-05-07 22:51 56.86451 -69.34631 35766 ft 471 kts 223°
2026-05-07 22:52 56.81811 -69.43107 35767 ft 470 kts 222°
2026-05-07 22:52 56.77206 -69.51490 35777 ft 470 kts 223°
2026-05-07 22:53 56.73313 -69.58552 35765 ft 470 kts 222°
2026-05-07 22:53 56.68707 -69.66878 35768 ft 470 kts 222°
2026-05-07 22:54 56.64060 -69.75248 35764 ft 470 kts 222°
2026-05-07 22:54 56.59450 -69.83523 35769 ft 470 kts 222°
2026-05-07 22:55 56.53988 -69.93285 35769 ft 471 kts 222°
2026-05-07 22:55 56.49311 -70.01613 35771 ft 472 kts 222°
2026-05-07 22:56 56.45403 -70.08547 35776 ft 473 kts 222°
2026-05-07 22:56 56.40685 -70.16891 35774 ft 474 kts 222°
2026-05-07 22:57 56.36010 -70.25131 35776 ft 474 kts 222°
2026-05-07 22:57 56.31265 -70.33461 35779 ft 475 kts 222°
2026-05-07 22:58 56.26556 -70.41698 35776 ft 475 kts 222°
2026-05-07 22:58 56.21801 -70.49987 35772 ft 475 kts 222°
2026-05-07 22:59 56.17032 -70.58270 35778 ft 475 kts 222°
2026-05-07 22:59 56.12252 -70.66540 35785 ft 475 kts 222°
2026-05-07 23:00 56.07523 -70.74692 35779 ft 475 kts 222°
2026-05-07 23:00 56.02751 -70.82891 35780 ft 475 kts 222°
2026-05-07 23:01 55.97975 -70.91067 35780 ft 475 kts 222°
2026-05-07 23:01 55.93183 -70.99240 35777 ft 475 kts 222°
2026-05-07 23:02 55.88388 -71.07389 35773 ft 476 kts 222°
2026-05-07 23:02 55.83626 -71.15453 35775 ft 477 kts 222°
2026-05-07 23:03 55.78798 -71.23598 35784 ft 477 kts 222°
2026-05-07 23:03 55.73994 -71.31676 35782 ft 478 kts 222°
2026-05-07 23:04 55.69135 -71.39815 35784 ft 478 kts 222°
2026-05-07 23:04 55.64296 -71.47893 35777 ft 478 kts 222°
2026-05-07 23:05 55.59442 -71.55967 35778 ft 479 kts 221°
2026-05-07 23:05 55.54610 -71.63976 35781 ft 479 kts 221°
2026-05-07 23:06 55.49737 -71.72025 35779 ft 479 kts 221°
2026-05-07 23:06 55.44856 -71.80056 35780 ft 479 kts 221°
2026-05-07 23:07 55.40008 -71.88007 35780 ft 479 kts 221°
2026-05-07 23:07 55.35131 -71.95976 35785 ft 479 kts 221°
2026-05-07 23:08 55.30224 -72.03967 35777 ft 479 kts 221°
2026-05-07 23:08 55.25378 -72.11830 35790 ft 479 kts 221°
2026-05-07 23:09 55.20469 -72.19768 35781 ft 480 kts 221°
2026-05-07 23:09 55.15560 -72.27677 35782 ft 480 kts 221°
2026-05-07 23:10 55.10635 -72.35586 35773 ft 480 kts 221°
2026-05-07 23:10 55.05740 -72.43418 35773 ft 480 kts 221°
2026-05-07 23:11 55.00794 -72.51304 35773 ft 481 kts 221°
2026-05-07 23:11 54.95836 -72.59182 35773 ft 481 kts 221°
2026-05-07 23:12 54.90903 -72.66994 35769 ft 481 kts 221°
2026-05-07 23:12 54.85935 -72.74832 35775 ft 481 kts 221°
2026-05-07 23:13 54.81006 -72.82583 35774 ft 481 kts 221°
2026-05-07 23:13 54.76045 -72.90357 35773 ft 481 kts 221°
2026-05-07 23:14 54.71085 -72.98103 35777 ft 481 kts 221°
2026-05-07 23:14 54.66085 -73.05884 35779 ft 481 kts 221°
2026-05-07 23:15 54.61128 -73.13572 35771 ft 481 kts 221°
2026-05-07 23:15 54.56170 -73.21236 35777 ft 481 kts 221°
2026-05-07 23:16 54.51166 -73.28944 35786 ft 480 kts 221°
2026-05-07 23:16 54.46189 -73.36584 35781 ft 481 kts 221°
2026-05-07 23:17 54.41196 -73.44223 35781 ft 481 kts 221°
2026-05-07 23:17 54.36209 -73.51825 35786 ft 481 kts 221°
2026-05-07 23:18 54.31211 -73.59421 35785 ft 481 kts 221°
2026-05-07 23:18 54.26195 -73.67017 35789 ft 481 kts 221°
2026-05-07 23:19 54.21157 -73.74621 35785 ft 481 kts 220°
2026-05-07 23:19 54.16183 -73.82103 35798 ft 481 kts 221°
2026-05-07 23:20 54.11137 -73.89667 35798 ft 481 kts 220°
2026-05-07 23:20 54.06097 -73.97198 35799 ft 481 kts 220°
2026-05-07 23:21 54.01063 -74.04695 35796 ft 482 kts 220°
2026-05-07 23:21 53.96031 -74.12163 35798 ft 482 kts 220°
2026-05-07 23:22 53.90949 -74.19680 35803 ft 482 kts 220°
2026-05-07 23:22 53.85894 -74.27132 35802 ft 482 kts 220°
2026-05-07 23:23 53.80866 -74.34521 35807 ft 482 kts 220°
2026-05-07 23:23 53.75776 -74.41975 35802 ft 482 kts 220°
2026-05-07 23:24 53.70694 -74.49393 35807 ft 482 kts 220°
2026-05-07 23:24 53.65592 -74.56815 35805 ft 482 kts 220°
2026-05-07 23:25 53.60505 -74.64192 35805 ft 482 kts 220°
2026-05-07 23:25 53.55437 -74.71515 35805 ft 482 kts 220°
2026-05-07 23:26 53.50342 -74.78855 35803 ft 482 kts 220°
2026-05-07 23:26 53.45239 -74.86182 35804 ft 482 kts 220°
2026-05-07 23:27 53.37620 -74.97076 35806 ft 481 kts 220°
2026-05-07 23:27 53.32516 -75.04344 35802 ft 481 kts 220°
2026-05-07 23:28 53.27411 -75.11591 35797 ft 481 kts 220°
2026-05-07 23:28 53.22301 -75.18821 35800 ft 481 kts 220°
2026-05-07 23:29 53.17182 -75.26041 35797 ft 481 kts 220°
2026-05-07 23:29 53.12097 -75.33189 35796 ft 481 kts 220°
2026-05-07 23:30 53.06967 -75.40377 35793 ft 482 kts 220°
2026-05-07 23:30 53.01833 -75.47548 35798 ft 482 kts 220°
2026-05-07 23:31 52.96684 -75.54717 35797 ft 482 kts 220°
2026-05-07 23:31 52.91565 -75.61820 35797 ft 483 kts 220°
2026-05-07 23:32 52.86411 -75.68950 35796 ft 483 kts 220°
2026-05-07 23:32 52.81236 -75.76086 35806 ft 483 kts 220°
2026-05-07 23:33 52.76068 -75.83189 35796 ft 483 kts 220°
2026-05-07 23:33 52.70893 -75.90279 35794 ft 483 kts 220°
2026-05-07 23:34 52.65713 -75.97354 35797 ft 483 kts 220°
2026-05-07 23:34 52.60564 -76.04364 35797 ft 483 kts 220°
2026-05-07 23:35 52.55381 -76.11399 35797 ft 483 kts 220°
2026-05-07 23:35 52.50190 -76.18420 35797 ft 483 kts 220°
2026-05-07 23:36 52.45001 -76.25418 35795 ft 483 kts 220°
2026-05-07 23:36 52.39804 -76.32406 35800 ft 482 kts 220°
2026-05-07 23:37 52.34634 -76.39334 35796 ft 482 kts 220°
2026-05-07 23:37 52.29429 -76.46287 35798 ft 482 kts 220°
2026-05-07 23:38 52.24255 -76.53178 35794 ft 482 kts 219°
2026-05-07 23:38 52.19049 -76.60089 35799 ft 482 kts 220°
2026-05-07 23:39 52.13841 -76.66981 35796 ft 482 kts 219°
2026-05-07 23:39 52.08636 -76.73849 35794 ft 482 kts 219°
2026-05-07 23:40 52.03416 -76.80715 35794 ft 482 kts 219°
2026-05-07 23:40 51.98195 -76.87561 35793 ft 482 kts 219°
2026-05-07 23:41 51.93858 -76.93231 35793 ft 482 kts 219°
2026-05-07 23:41 51.87786 -77.01146 35794 ft 481 kts 219°
2026-05-07 23:42 51.83402 -77.06843 35795 ft 481 kts 219°
2026-05-07 23:42 51.78207 -77.13576 35791 ft 481 kts 219°
2026-05-07 23:43 51.72986 -77.20320 35801 ft 481 kts 219°
2026-05-07 23:43 51.67758 -77.27055 35799 ft 481 kts 219°
2026-05-07 23:44 51.62523 -77.33776 35801 ft 481 kts 219°
2026-05-07 23:44 51.57296 -77.40469 35799 ft 480 kts 219°
2026-05-07 23:45 51.52054 -77.47158 35803 ft 480 kts 219°
2026-05-07 23:45 51.46845 -77.53787 35802 ft 480 kts 219°
2026-05-07 23:46 51.41598 -77.60443 35800 ft 480 kts 219°
2026-05-07 23:46 51.36355 -77.67075 35797 ft 480 kts 219°
2026-05-07 23:47 51.31140 -77.73651 35800 ft 480 kts 219°
2026-05-07 23:47 51.25895 -77.80245 35799 ft 480 kts 219°
2026-05-07 23:48 51.20647 -77.86824 35803 ft 480 kts 219°
2026-05-07 23:48 51.15387 -77.93398 35799 ft 479 kts 219°
2026-05-07 23:49 51.10168 -77.99901 35800 ft 479 kts 219°
2026-05-07 23:49 51.04897 -78.06450 35801 ft 479 kts 219°
2026-05-07 23:50 50.99667 -78.12930 35802 ft 479 kts 219°
2026-05-07 23:50 50.94399 -78.19436 35794 ft 479 kts 219°
2026-05-07 23:51 50.89133 -78.25920 35800 ft 479 kts 219°
2026-05-07 23:51 50.83867 -78.32386 35800 ft 479 kts 219°
2026-05-07 23:52 50.78598 -78.38836 35796 ft 479 kts 219°
2026-05-07 23:52 50.73354 -78.45239 35789 ft 479 kts 219°
2026-05-07 23:53 50.68080 -78.51657 35795 ft 478 kts 219°
2026-05-07 23:53 50.62808 -78.58056 35794 ft 478 kts 218°
2026-05-07 23:54 50.57527 -78.64446 35797 ft 478 kts 218°
2026-05-07 23:54 50.52252 -78.70810 35797 ft 478 kts 218°
2026-05-07 23:55 50.46997 -78.77133 35797 ft 478 kts 218°
2026-05-07 23:55 50.41711 -78.83474 35798 ft 478 kts 218°
2026-05-07 23:56 50.36420 -78.89802 35799 ft 478 kts 218°
2026-05-07 23:56 50.31126 -78.96117 35800 ft 478 kts 218°
2026-05-07 23:57 50.25821 -79.02426 35800 ft 478 kts 218°
2026-05-07 23:57 50.20513 -79.08720 35800 ft 479 kts 218°
2026-05-07 23:58 50.15210 -79.14992 35800 ft 479 kts 218°
2026-05-07 23:58 50.09905 -79.21248 35798 ft 478 kts 218°
2026-05-07 23:59 50.04630 -79.27449 35804 ft 478 kts 218°
2026-05-07 23:59 49.99319 -79.33676 35805 ft 478 kts 218°
2026-05-08 00:00 49.94008 -79.39886 35808 ft 477 kts 218°
2026-05-08 00:00 49.88704 -79.46069 35810 ft 477 kts 218°
2026-05-08 00:01 49.83389 -79.52249 35807 ft 477 kts 218°
2026-05-08 00:01 49.78077 -79.58407 35809 ft 477 kts 218°
2026-05-08 00:02 49.75438 -79.61524 40400 ft 481 kts 219°
2026-05-08 00:02 49.72789 -79.64643 40142 ft 482 kts 218°
2026-05-08 00:02 49.70109 -79.67723 39925 ft 478 kts 218°
2026-05-08 00:02 49.67450 -79.70751 39696 ft 472 kts 218°
2026-05-08 00:03 49.64825 -79.73735 39462 ft 466 kts 218°
2026-05-08 00:03 49.62233 -79.76686 39285 ft 461 kts 218°
2026-05-08 00:03 49.59660 -79.79624 39066 ft 459 kts 218°
2026-05-08 00:03 49.57099 -79.82553 38867 ft 458 kts 218°
2026-05-08 00:04 49.54529 -79.85494 38674 ft 463 kts 218°
2026-05-08 00:04 49.51926 -79.88472 38459 ft 469 kts 218°
2026-05-08 00:04 49.49281 -79.91494 38196 ft 477 kts 218°
2026-05-08 00:04 49.46641 -79.94505 37974 ft 480 kts 218°
2026-05-08 00:05 49.43955 -79.97561 37718 ft 479 kts 218°
2026-05-08 00:05 49.41281 -80.00598 37467 ft 478 kts 218°
2026-05-08 00:05 49.38608 -80.03631 37243 ft 477 kts 218°
2026-05-08 00:05 49.35891 -80.06709 36993 ft 475 kts 218°
2026-05-08 00:06 49.33281 -80.09662 36766 ft 474 kts 218°
2026-05-08 00:06 49.30626 -80.12661 36520 ft 472 kts 218°
2026-05-08 00:06 49.27977 -80.15651 36285 ft 471 kts 218°
2026-05-08 00:06 49.25334 -80.18630 36082 ft 470 kts 218°
2026-05-08 00:07 49.22706 -80.21588 35966 ft 469 kts 218°
2026-05-08 00:07 49.20064 -80.24558 35922 ft 473 kts 218°
2026-05-08 00:07 49.14742 -80.30531 35849 ft 479 kts 218°
2026-05-08 00:08 49.09366 -80.36544 35828 ft 478 kts 218°
2026-05-08 00:08 49.03999 -80.42529 35824 ft 477 kts 218°
2026-05-08 00:09 48.98643 -80.48489 35836 ft 476 kts 218°
2026-05-08 00:09 48.93299 -80.54418 35837 ft 475 kts 218°
2026-05-08 00:10 48.87943 -80.60344 35830 ft 475 kts 218°
2026-05-08 00:10 48.82633 -80.66205 35835 ft 474 kts 218°
2026-05-08 00:11 48.77287 -80.72089 35840 ft 475 kts 218°
2026-05-08 00:11 48.71938 -80.77961 35838 ft 475 kts 218°
2026-05-08 00:12 48.66584 -80.83823 35843 ft 475 kts 218°
2026-05-08 00:12 48.61216 -80.89684 35839 ft 476 kts 218°
2026-05-08 00:13 48.55844 -80.95535 35832 ft 476 kts 218°
2026-05-08 00:13 48.53170 -80.98435 33108 ft 509 kts 218°
2026-05-08 00:13 48.50304 -81.01564 32350 ft 502 kts 218°
2026-05-08 00:14 48.47544 -81.04555 32583 ft 477 kts 218°
2026-05-08 00:14 48.44974 -81.07684 32841 ft 473 kts 223°
2026-05-08 00:14 48.42619 -81.11128 33102 ft 471 kts 229°
2026-05-08 00:14 48.40458 -81.14825 33367 ft 470 kts 230°
2026-05-08 00:15 48.38300 -81.18522 33663 ft 470 kts 230°
2026-05-08 00:15 48.36127 -81.22220 33931 ft 471 kts 230°
2026-05-08 00:15 48.33949 -81.25906 34162 ft 471 kts 230°
2026-05-08 00:15 48.31758 -81.29596 34380 ft 472 kts 230°
2026-05-08 00:16 48.29569 -81.33270 34607 ft 472 kts 230°
2026-05-08 00:16 48.27401 -81.36900 34844 ft 473 kts 230°
2026-05-08 00:16 48.25199 -81.40582 35093 ft 473 kts 230°
2026-05-08 00:16 48.22999 -81.44253 35340 ft 473 kts 230°
2026-05-08 00:17 48.20793 -81.47931 35579 ft 474 kts 230°
2026-05-08 00:17 48.18580 -81.51615 35703 ft 476 kts 230°
2026-05-08 00:17 48.14119 -81.59030 35837 ft 478 kts 230°
2026-05-08 00:18 48.09696 -81.66358 35859 ft 470 kts 230°
2026-05-08 00:18 48.05339 -81.73556 35871 ft 469 kts 230°
2026-05-08 00:19 48.00955 -81.80783 35877 ft 469 kts 230°
2026-05-08 00:19 47.96565 -81.88002 35882 ft 469 kts 230°
2026-05-08 00:20 47.92159 -81.95224 35867 ft 470 kts 230°
2026-05-08 00:20 47.87749 -82.02433 35899 ft 472 kts 230°
2026-05-08 00:21 47.85527 -82.06059 36017 ft 475 kts 230°
2026-05-08 00:21 47.83292 -82.09700 36250 ft 477 kts 230°
2026-05-08 00:21 47.81051 -82.13347 36490 ft 478 kts 230°
2026-05-08 00:21 47.78802 -82.17001 36698 ft 479 kts 230°
2026-05-08 00:22 47.76575 -82.20614 36878 ft 482 kts 230°
2026-05-08 00:22 47.74277 -82.24337 37018 ft 484 kts 230°
2026-05-08 00:22 47.71999 -82.28022 37202 ft 485 kts 230°
2026-05-08 00:22 47.69741 -82.31670 37349 ft 487 kts 230°
2026-05-08 00:23 47.67448 -82.35371 37491 ft 488 kts 230°
2026-05-08 00:23 47.65145 -82.39080 37638 ft 489 kts 230°
2026-05-08 00:23 47.62833 -82.42801 37749 ft 491 kts 230°
2026-05-08 00:23 47.60511 -82.46532 37819 ft 493 kts 230°
2026-05-08 00:24 47.55830 -82.54037 37862 ft 497 kts 230°
2026-05-08 00:24 47.51148 -82.61520 37880 ft 495 kts 230°
2026-05-08 00:25 47.46467 -82.68979 37885 ft 494 kts 230°
2026-05-08 00:25 47.41790 -82.76416 37884 ft 494 kts 230°
2026-05-08 00:26 47.37146 -82.83779 37887 ft 493 kts 229°
2026-05-08 00:26 47.32471 -82.91170 37895 ft 492 kts 230°
2026-05-08 00:27 47.27790 -82.98550 37883 ft 492 kts 230°
2026-05-08 00:27 47.23104 -83.05917 37905 ft 492 kts 229°
2026-05-08 00:28 47.18418 -83.13264 37902 ft 493 kts 229°
2026-05-08 00:28 47.13750 -83.20562 37895 ft 493 kts 229°
2026-05-08 00:29 47.09049 -83.27891 37903 ft 493 kts 229°
2026-05-08 00:29 47.04339 -83.35215 37904 ft 493 kts 229°
2026-05-08 00:30 46.99625 -83.42524 37906 ft 493 kts 229°
2026-05-08 00:30 46.94938 -83.49771 37905 ft 493 kts 229°
2026-05-08 00:31 46.90211 -83.57062 37907 ft 493 kts 229°
2026-05-08 00:31 46.85481 -83.64337 37913 ft 494 kts 229°
2026-05-08 00:32 46.80743 -83.71604 37908 ft 494 kts 229°
2026-05-08 00:32 46.76800 -83.77636 37899 ft 494 kts 229°
2026-05-08 00:33 46.72049 -83.84886 37910 ft 494 kts 229°
2026-05-08 00:33 46.67295 -83.92121 37910 ft 494 kts 229°
2026-05-08 00:34 46.62538 -83.99343 37910 ft 494 kts 229°
2026-05-08 00:34 46.57801 -84.06514 37917 ft 494 kts 229°
2026-05-08 00:35 46.53034 -84.13712 37906 ft 494 kts 229°
2026-05-08 00:35 46.48261 -84.20900 37908 ft 494 kts 229°
2026-05-08 00:36 46.43472 -84.28072 37899 ft 493 kts 227°
2026-05-08 00:36 46.40745 -84.31116 37906 ft 499 kts 213°
2026-05-08 00:36 46.37535 -84.33112 37901 ft 507 kts 198°
2026-05-08 00:37 46.30637 -84.35295 37914 ft 509 kts 196°
2026-05-08 00:38 46.20255 -84.38732 37912 ft 512 kts 197°
2026-05-08 00:38 46.13365 -84.41109 37921 ft 513 kts 198°
2026-05-08 00:39 46.06406 -84.43514 37924 ft 514 kts 197°
2026-05-08 00:39 45.99440 -84.45908 37908 ft 515 kts 197°
2026-05-08 00:40 45.92440 -84.48302 37918 ft 515 kts 197°
2026-05-08 00:40 45.85461 -84.50682 37917 ft 515 kts 197°
2026-05-08 00:41 45.78548 -84.53033 37902 ft 507 kts 198°
2026-05-08 00:41 45.75149 -84.54182 37898 ft 495 kts 198°
2026-05-08 00:41 45.71812 -84.55310 37915 ft 491 kts 198°
2026-05-08 00:42 45.65164 -84.57566 37918 ft 490 kts 198°
2026-05-08 00:42 45.58531 -84.59813 37915 ft 490 kts 198°
2026-05-08 00:43 45.51892 -84.62052 37930 ft 490 kts 198°
2026-05-08 00:43 45.45290 -84.64272 37908 ft 490 kts 198°
2026-05-08 00:44 45.38637 -84.66502 37931 ft 490 kts 198°
2026-05-08 00:44 45.31997 -84.68725 37937 ft 490 kts 198°
2026-05-08 00:45 45.25352 -84.70943 37922 ft 491 kts 198°
2026-05-08 00:45 45.18696 -84.73158 37930 ft 491 kts 198°
2026-05-08 00:46 45.12035 -84.75370 37910 ft 491 kts 198°
2026-05-08 00:46 45.05428 -84.77560 37885 ft 491 kts 199°
2026-05-08 00:47 44.98782 -84.79757 37934 ft 490 kts 199°
2026-05-08 00:47 44.92132 -84.81951 37923 ft 490 kts 199°
2026-05-08 00:48 44.85477 -84.84141 37894 ft 490 kts 199°
2026-05-08 00:48 44.78839 -84.86320 37891 ft 490 kts 199°
2026-05-08 00:49 44.72201 -84.88494 37899 ft 489 kts 199°
2026-05-08 00:49 44.65604 -84.90650 37894 ft 490 kts 199°
2026-05-08 00:50 44.58970 -84.92813 37906 ft 490 kts 199°
2026-05-08 00:50 44.52324 -84.94975 37910 ft 490 kts 199°
2026-05-08 00:51 44.45680 -84.97130 37933 ft 489 kts 199°
2026-05-08 00:51 44.39075 -84.99268 37930 ft 489 kts 199°
2026-05-08 00:52 44.32440 -85.01411 37937 ft 489 kts 199°
2026-05-08 00:52 44.25797 -85.03552 37947 ft 489 kts 199°
2026-05-08 00:53 44.19154 -85.05688 37945 ft 489 kts 199°
2026-05-08 00:53 44.12555 -85.07806 37953 ft 489 kts 199°
2026-05-08 00:54 44.05922 -85.09928 37952 ft 489 kts 199°
2026-05-08 00:54 43.99275 -85.12047 37955 ft 489 kts 199°
2026-05-08 00:55 43.92626 -85.14163 37954 ft 490 kts 199°
2026-05-08 00:55 43.86004 -85.16266 37950 ft 490 kts 199°
2026-05-08 00:56 43.79343 -85.18377 37956 ft 490 kts 199°
2026-05-08 00:56 43.72729 -85.20469 37925 ft 491 kts 199°
2026-05-08 00:57 43.66029 -85.22582 37948 ft 491 kts 199°
2026-05-08 00:57 43.59396 -85.24668 37953 ft 491 kts 199°
2026-05-08 00:58 43.52717 -85.26765 37923 ft 492 kts 200°
2026-05-08 00:58 43.46031 -85.28860 37941 ft 492 kts 200°
2026-05-08 00:59 43.39405 -85.30931 37950 ft 492 kts 200°
2026-05-08 00:59 43.36079 -85.31968 37755 ft 488 kts 200°
2026-05-08 00:59 43.32786 -85.32991 37234 ft 483 kts 200°
2026-05-08 00:59 43.29523 -85.34005 36723 ft 478 kts 200°
2026-05-08 01:00 43.26298 -85.35009 36263 ft 473 kts 200°
2026-05-08 01:00 43.23106 -85.36002 35834 ft 467 kts 201°
2026-05-08 01:00 43.19950 -85.36983 35415 ft 462 kts 201°
2026-05-08 01:00 43.16823 -85.37952 34992 ft 457 kts 201°
2026-05-08 01:01 43.13732 -85.38907 34583 ft 453 kts 201°
2026-05-08 01:01 43.10705 -85.39840 34160 ft 448 kts 202°
2026-05-08 01:01 43.07672 -85.40777 33608 ft 446 kts 202°
2026-05-08 01:01 43.04676 -85.41700 32905 ft 436 kts 202°
2026-05-08 01:02 43.01749 -85.42599 32254 ft 427 kts 202°
2026-05-08 01:02 42.98889 -85.43476 31600 ft 417 kts 203°
2026-05-08 01:02 42.96071 -85.44347 30992 ft 413 kts 203°
2026-05-08 01:02 42.93296 -85.45207 30373 ft 405 kts 203°
2026-05-08 01:03 42.90560 -85.46052 29673 ft 401 kts 203°
2026-05-08 01:03 42.87844 -85.46892 28966 ft 400 kts 203°
2026-05-08 01:03 42.85148 -85.47722 28279 ft 400 kts 202°
2026-05-08 01:03 42.82435 -85.48670 27366 ft 397 kts 211°
2026-05-08 01:04 42.80113 -85.50544 26032 ft 384 kts 231°
2026-05-08 01:04 42.78438 -85.53336 24627 ft 384 kts 246°
2026-05-08 01:04 42.77355 -85.56589 23863 ft 379 kts 258°
2026-05-08 01:04 42.76723 -85.60047 23493 ft 374 kts 262°
2026-05-08 01:05 42.76157 -85.63523 23277 ft 377 kts 262°
2026-05-08 01:05 42.75564 -85.67022 23048 ft 381 kts 261°
2026-05-08 01:05 42.74940 -85.70550 22840 ft 383 kts 261°
2026-05-08 01:05 42.74305 -85.74070 22614 ft 382 kts 260°
2026-05-08 01:06 42.73671 -85.77555 22339 ft 378 kts 260°
2026-05-08 01:06 42.73041 -85.81027 22008 ft 377 kts 260°
2026-05-08 01:06 42.72420 -85.84443 21662 ft 376 kts 260°
2026-05-08 01:06 42.71793 -85.87892 21317 ft 375 kts 260°
2026-05-08 01:07 42.71166 -85.91336 21006 ft 374 kts 260°
2026-05-08 01:07 42.70543 -85.94757 20693 ft 372 kts 260°
2026-05-08 01:07 42.69920 -85.98171 20392 ft 371 kts 260°
2026-05-08 01:07 42.69297 -86.01578 20096 ft 370 kts 259°
2026-05-08 01:08 42.68676 -86.04958 20005 ft 367 kts 259°
2026-05-08 01:08 42.68057 -86.08326 19955 ft 367 kts 259°
2026-05-08 01:08 42.67442 -86.11668 19943 ft 369 kts 259°
2026-05-08 01:08 42.66817 -86.15060 19944 ft 370 kts 259°
2026-05-08 01:09 42.66188 -86.18464 19926 ft 371 kts 259°
2026-05-08 01:09 42.65558 -86.21871 19927 ft 371 kts 259°
2026-05-08 01:09 42.64927 -86.25274 19933 ft 371 kts 259°
2026-05-08 01:09 42.64295 -86.28673 19937 ft 371 kts 259°
2026-05-08 01:10 42.63670 -86.32029 19935 ft 371 kts 259°
2026-05-08 01:10 42.63037 -86.35422 19936 ft 370 kts 259°
2026-05-08 01:10 42.62403 -86.38819 19935 ft 370 kts 259°
2026-05-08 01:10 42.61768 -86.42211 19938 ft 370 kts 259°
2026-05-08 01:11 42.61133 -86.45605 19939 ft 370 kts 259°
2026-05-08 01:11 42.60497 -86.48995 19940 ft 370 kts 259°
2026-05-08 01:11 42.59869 -86.52335 19939 ft 370 kts 259°
2026-05-08 01:11 42.59231 -86.55724 19940 ft 370 kts 259°
2026-05-08 01:12 42.58593 -86.59106 19924 ft 370 kts 259°
2026-05-08 01:12 42.57955 -86.62490 19933 ft 370 kts 259°
2026-05-08 01:12 42.57314 -86.65878 19936 ft 370 kts 259°
2026-05-08 01:12 42.56671 -86.69271 19946 ft 371 kts 259°
2026-05-08 01:13 42.56018 -86.72662 19930 ft 371 kts 258°
2026-05-08 01:13 42.55213 -86.76004 19940 ft 373 kts 255°
2026-05-08 01:13 42.54312 -86.79281 19951 ft 374 kts 253°
2026-05-08 01:13 42.53386 -86.82558 19946 ft 374 kts 253°
2026-05-08 01:14 42.52457 -86.85863 19937 ft 375 kts 253°
2026-05-08 01:14 42.51541 -86.89169 19940 ft 375 kts 254°
2026-05-08 01:14 42.50630 -86.92488 19943 ft 375 kts 254°
2026-05-08 01:14 42.49724 -86.95805 19920 ft 375 kts 254°
2026-05-08 01:15 42.48821 -86.99120 19935 ft 375 kts 254°
2026-05-08 01:15 42.47919 -87.02437 19937 ft 375 kts 254°
2026-05-08 01:15 42.47026 -87.05713 19935 ft 375 kts 254°
2026-05-08 01:15 42.46118 -87.09033 19936 ft 375 kts 254°
2026-05-08 01:16 42.45210 -87.12351 19862 ft 377 kts 254°
2026-05-08 01:16 42.44295 -87.15688 19424 ft 378 kts 254°
2026-05-08 01:16 42.43383 -87.19008 19036 ft 370 kts 254°
2026-05-08 01:16 42.42487 -87.22263 18683 ft 368 kts 254°
2026-05-08 01:17 42.41596 -87.25508 18330 ft 368 kts 254°
2026-05-08 01:17 42.40703 -87.28754 17930 ft 367 kts 254°
2026-05-08 01:17 42.39814 -87.31978 17610 ft 364 kts 254°
2026-05-08 01:17 42.38940 -87.35136 17288 ft 361 kts 254°
2026-05-08 01:18 42.38060 -87.38316 16937 ft 360 kts 254°
2026-05-08 01:18 42.37183 -87.41486 16582 ft 358 kts 254°
2026-05-08 01:18 42.36310 -87.44638 16237 ft 357 kts 254°
2026-05-08 01:18 42.35440 -87.47774 15888 ft 356 kts 254°
2026-05-08 01:19 42.34567 -87.50892 15535 ft 351 kts 252°
2026-05-08 01:19 42.33338 -87.53762 15198 ft 359 kts 237°
2026-05-08 01:19 42.31500 -87.56109 14857 ft 368 kts 224°
2026-05-08 01:19 42.29447 -87.58188 14498 ft 369 kts 224°
2026-05-08 01:20 42.27436 -87.60269 14156 ft 368 kts 224°
2026-05-08 01:20 42.25413 -87.62389 13785 ft 367 kts 224°
2026-05-08 01:20 42.23399 -87.64503 13399 ft 365 kts 224°
2026-05-08 01:20 42.21408 -87.66594 13020 ft 360 kts 224°
2026-05-08 01:21 42.19445 -87.68653 12661 ft 354 kts 224°
2026-05-08 01:21 42.17514 -87.70678 12311 ft 349 kts 224°
2026-05-08 01:21 42.15604 -87.72683 11966 ft 345 kts 224°
2026-05-08 01:21 42.14355 -87.73990 11762 ft 340 kts 224°
2026-05-08 01:22 42.12507 -87.75922 11423 ft 332 kts 224°
2026-05-08 01:22 42.10781 -87.77870 11089 ft 313 kts 233°
2026-05-08 01:22 42.09714 -87.80244 10811 ft 282 kts 253°
2026-05-08 01:22 42.09217 -87.82678 10548 ft 259 kts 264°
2026-05-08 01:23 42.09107 -87.85051 10321 ft 250 kts 272°
2026-05-08 01:23 42.09119 -87.87341 10088 ft 245 kts 272°
2026-05-08 01:23 42.09144 -87.89622 9851 ft 241 kts 272°
2026-05-08 01:23 42.09163 -87.91870 9599 ft 238 kts 272°
2026-05-08 01:24 42.09176 -87.94090 9359 ft 236 kts 272°
2026-05-08 01:24 42.09181 -87.96280 9130 ft 235 kts 272°
2026-05-08 01:24 42.09183 -87.98479 8901 ft 234 kts 272°
2026-05-08 01:24 42.09183 -88.00677 8676 ft 234 kts 272°
2026-05-08 01:25 42.09182 -88.02870 8454 ft 234 kts 271°
2026-05-08 01:25 42.09178 -88.05090 8111 ft 241 kts 271°
2026-05-08 01:25 42.09172 -88.07367 7724 ft 245 kts 271°
2026-05-08 01:25 42.09166 -88.09670 7342 ft 246 kts 270°
2026-05-08 01:26 42.09157 -88.11980 6960 ft 247 kts 271°
2026-05-08 01:26 42.09150 -88.14275 6574 ft 249 kts 270°
2026-05-08 01:26 42.09142 -88.16608 6216 ft 249 kts 270°
2026-05-08 01:26 42.09134 -88.18944 5865 ft 249 kts 270°
2026-05-08 01:27 42.09124 -88.21281 5505 ft 249 kts 270°
2026-05-08 01:27 42.09115 -88.23601 5234 ft 246 kts 270°
2026-05-08 01:27 42.09104 -88.25899 4953 ft 243 kts 270°
2026-05-08 01:27 42.08804 -88.28090 4658 ft 239 kts 245°
2026-05-08 01:28 42.07732 -88.29738 4425 ft 240 kts 216°
2026-05-08 01:28 42.06145 -88.30410 4217 ft 244 kts 184°
2026-05-08 01:28 42.04512 -88.29906 4057 ft 240 kts 157°
2026-05-08 01:28 42.03239 -88.28518 4006 ft 238 kts 129°
2026-05-08 01:29 42.02270 -88.26679 4022 ft 244 kts 127°
2026-05-08 01:29 42.01297 -88.24800 4008 ft 244 kts 127°
2026-05-08 01:29 42.00332 -88.22928 3991 ft 242 kts 127°
2026-05-08 01:29 41.99455 -88.21016 3977 ft 237 kts 115°
2026-05-08 01:30 41.98929 -88.18921 3994 ft 240 kts 99°
2026-05-08 01:30 41.98803 -88.16698 3993 ft 238 kts 90°
2026-05-08 01:30 41.98807 -88.14524 3818 ft 230 kts 89°
2026-05-08 01:30 41.98818 -88.12383 3565 ft 227 kts 89°
2026-05-08 01:31 41.98823 -88.10274 3197 ft 221 kts 89°
2026-05-08 01:31 41.98824 -88.08273 2885 ft 207 kts 90°
2026-05-08 01:31 41.98825 -88.06419 2607 ft 189 kts 91°
2026-05-08 01:31 41.98825 -88.04658 2434 ft 188 kts 91°
2026-05-08 01:32 41.98826 -88.02945 2124 ft 176 kts 91°
2026-05-08 01:32 41.98827 -88.01387 1903 ft 162 kts 91°
2026-05-08 01:32 41.98826 -87.99852 1741 ft 166 kts 91°
2026-05-08 01:32 41.98827 -87.98320 1482 ft 163 kts 91°
2026-05-08 01:33 41.98829 -87.96843 1217 ft 153 kts 89°
2026-05-08 01:33 41.98835 -87.95404 1054 ft 158 kts 89°
2026-05-08 01:33 41.98845 -87.93939 903 ft 156 kts 91°
2026-05-08 01:33 41.98833 -87.92493 694 ft 147 kts 89°
2026-05-08 01:34 41.98831 -87.91564 673 ft 25 kts 89°
2026-05-08 01:34 41.98832 -87.91504 672 ft 18 kts 90°
2026-05-08 01:34 41.98831 -87.91172 673 ft 51 kts 90°
2026-05-08 01:34 41.98828 -87.90666 678 ft 42 kts 91°
2026-05-08 01:35 41.98751 -87.90433 674 ft 27 kts 122°
2026-05-08 01:35 41.98683 -87.90202 671 ft 27 kts 90°
2026-05-08 01:35 41.98683 -87.89951 670 ft 27 kts 90°
2026-05-08 01:35 41.98682 -87.89699 667 ft 27 kts 90°
2026-05-08 01:36 41.98680 -87.89448 667 ft 27 kts 90°
2026-05-08 01:36 41.98681 -87.89196 665 ft 27 kts 90°
2026-05-08 01:36 41.98650 -87.89044 663 ft 14 kts 165°
2026-05-08 01:36 41.98571 -87.88966 663 ft 15 kts 133°
2026-05-08 01:37 41.98458 -87.88921 660 ft 20 kts 177°
2026-05-08 01:37 41.98316 -87.88919 661 ft 20 kts 180°
2026-05-08 01:37 41.98188 -87.88976 661 ft 20 kts 225°
2026-05-08 01:37 41.98093 -87.89118 665 ft 20 kts 232°
2026-05-08 01:38 41.98004 -87.89266 665 ft 20 kts 230°
2026-05-08 01:38 41.97894 -87.89414 668 ft 25 kts 207°
2026-05-08 01:38 41.97681 -87.89432 662 ft 26 kts 180°
2026-05-08 01:38 41.97498 -87.89432 663 ft 26 kts 180°
2026-05-08 01:39 41.97321 -87.89435 665 ft 26 kts 181°
2026-05-08 01:39 41.97202 -87.89396 671 ft 13 kts 108°
2026-05-08 01:39 41.97196 -87.89255 668 ft 20 kts 91°
2026-05-08 01:39 41.97216 -87.89109 665 ft 10 kts 21°
2026-05-08 01:40 41.97288 -87.89085 667 ft 13 kts 12°
2026-05-08 01:40 41.97344 -87.89082 667 ft 0 kts